LiveATC.Net - Listen to live air traffic control over the Internet!
Airport/ARTCC Code
Frequency Search
(e.g., 124.400, 128.75)
Site-wide search
 


Browse Feeds
Top 50 Feeds
HF Oceanic Feeds
Coverage Map
Bad Weather Areas

LiveATC FAQ

Increase Coverage

Contact LiveATC.net
Press Inquiries

LiveATC on iPhone
LiveATC on Android

LiveATC Mobile
(Mobile browser)

ATC Audio Archives
Interesting Recordings

LiveATC Forums

Home Page
About LiveATC.net


Terms of Use
Privacy Policy

AIRMETs/SIGMETs

FAA Airport Status
NAS Status
Arrival Demand


Server Software By:
Icecast.org
Liquidsoap

Select an area of interest:
U.S. Feeds: Class B Airports | Class C Airports | Class D/Other Airports | ARTCC (Centers)
International Feeds: Canada | Europe | Oceania | Asia | South America | North/Central America | Africa
Misc Feeds: HF Feeds
Search by ICAO/IATA airport code:   (e.g., kbos, kjfk, lax, eham, etc.)


Currently Available Live Feeds: 3198
Status Updated: Fri Apr 12 2024 18:13:04 UTC


NOTICE

Unauthorized use prohibited. See LiveATC.net Terms of Service

Europe Airport Feeds

 

EETN ATIS (Archives)
Tallinn, Estonia

Feed Status: UP
Listen in your browser - HTML5 player(in browser, HTML5)
Click here to listen with your own player(launches your MP3 player)

EETN 121750Z 23004KT CAVOK 09/03 Q1015 NOSIG

EETN Flight Activity (Flightaware)

Listeners: 0 out of 3127 total

Tallinn ATIS: 124.880

EETN Radar (Archives)
Tallinn, Estonia

Feed Status: UP
Listen in your browser - HTML5 player(in browser, HTML5)
Click here to listen with your own player(launches your MP3 player)

EETN 121750Z 23004KT CAVOK 09/03 Q1015 NOSIG

EETN Flight Activity (Flightaware)

Listeners: 2 out of 3127 total

Tallinn Radar: 127.905

EETN Tower (Archives)
Tallinn, Estonia

Feed Status: UP
Listen in your browser - HTML5 player(in browser, HTML5)
Click here to listen with your own player(launches your MP3 player)

EETN 121750Z 23004KT CAVOK 09/03 Q1015 NOSIG

EETN Flight Activity (Flightaware)

Listeners: 1 out of 3127 total

Tallinn Tower: 135.905

EFJY Tower (Archives)
Jyvaskyla, Finland

Feed Status: UP
Listen in your browser - HTML5 player(in browser, HTML5)
Click here to listen with your own player(launches your MP3 player)

EFJY 121750Z AUTO 21002KT CAVOK 03/M02 Q1011

EFJY Flight Activity (Flightaware)

Listeners: 6 out of 3127 total

Jyvaskyla Tower: 118.000
Jyvaskyla Tower: 119.700

Dutch Mil Radar (Archives)
Amsterdam, Netherlands

Feed Status: UP
Listen in your browser - HTML5 player(in browser, HTML5)
Click here to listen with your own player(launches your MP3 player)

EHLE 121755Z AUTO 23011KT 9999 NSC 16/10 Q1027 NOSIG

EHLE Flight Activity (Flightaware)

Listeners: 5 out of 3127 total

Approach: 124.530
Dutch Mil Flight Info: 264.325
Dutch Mil Radar: 128.355
Dutch Mil Radar: 132.350

EHAA Radar ARTIP (Archives)
Amsterdam, Netherlands

Feed Status: UP
Listen in your browser - HTML5 player(in browser, HTML5)
Click here to listen with your own player(launches your MP3 player)

EHAM 121755Z 23013KT CAVOK 16/11 Q1027 NOSIG

EHAM Flight Activity (Flightaware)

Listeners: 1 out of 3127 total

EHAA Radar Sector 1 ARTIP: 120.550

EHAA Radar East Outbound (Archives)
Amsterdam, Netherlands

Feed Status: UP
Listen in your browser - HTML5 player(in browser, HTML5)
Click here to listen with your own player(launches your MP3 player)

EHAM 121755Z 23013KT CAVOK 16/11 Q1027 NOSIG

EHAM Flight Activity (Flightaware)

Listeners: 1 out of 3127 total

EHAA Radar Sector 2 East Outbound: 124.875

EHAA Radar Northwest (Archives)
Amsterdam, Netherlands

Feed Status: UP
Listen in your browser - HTML5 player(in browser, HTML5)
Click here to listen with your own player(launches your MP3 player)

EHAM 121755Z 23013KT CAVOK 16/11 Q1027 NOSIG

EHAM Flight Activity (Flightaware)

Listeners: 1 out of 3127 total

EHAA Radar Sector 5 Northwest: 123.705

EHAA Radar South (Archives)
Amsterdam, Netherlands

Feed Status: UP
Listen in your browser - HTML5 player(in browser, HTML5)
Click here to listen with your own player(launches your MP3 player)

EHAM 121755Z 23013KT CAVOK 16/11 Q1027 NOSIG

EHAM Flight Activity (Flightaware)

Listeners: 3 out of 3127 total

EHAA Radar Sector 3 South: 123.850

EHAA Radar South (Backup) (Archives)
Amsterdam, Netherlands

Feed Status: UP
Listen in your browser - HTML5 player(in browser, HTML5)
Click here to listen with your own player(launches your MP3 player)

EHAM 121755Z 23013KT CAVOK 16/11 Q1027 NOSIG

EHAM Flight Activity (Flightaware)

Listeners: 0 out of 3127 total

EHAA Radar Sector 3 South Backup : 127.775

EHAA Radar Southwest (Archives)
Amsterdam, Netherlands

Feed Status: UP
Listen in your browser - HTML5 player(in browser, HTML5)
Click here to listen with your own player(launches your MP3 player)

EHAM 121755Z 23013KT CAVOK 16/11 Q1027 NOSIG

EHAM Flight Activity (Flightaware)

Listeners: 0 out of 3127 total

EHAA Radar Sector 4 Southwest: 125.750

EHAA Radar SUGOL (Archives)
Amsterdam, Netherlands

Feed Status: UP
Listen in your browser - HTML5 player(in browser, HTML5)
Click here to listen with your own player(launches your MP3 player)

EHAM 121755Z 23013KT CAVOK 16/11 Q1027 NOSIG

EHAM Flight Activity (Flightaware)

Listeners: 0 out of 3127 total

EHAA Radar Sector 5 SUGOL: 118.800

EHAM App/Dep Backup (Archives)
Amsterdam, Netherlands

Feed Status: UP
Listen in your browser - HTML5 player(in browser, HTML5)
Click here to listen with your own player(launches your MP3 player)

EHAM 121755Z 23013KT CAVOK 16/11 Q1027 NOSIG

EHAM Flight Activity (Flightaware)

Listeners: 0 out of 3127 total

Schiphol App/Dep Backup: 118.075

EHAM App/Dep TMA East (Archives)
Amsterdam, Netherlands

Feed Status: UP
Listen in your browser - HTML5 player(in browser, HTML5)
Click here to listen with your own player(launches your MP3 player)

EHAM 121755Z 23013KT CAVOK 16/11 Q1027 NOSIG

EHAM Flight Activity (Flightaware)

Listeners: 12 out of 3127 total

Amsterdam Approach/Departure TMA East: 119.055

EHAM App/Dep TMA West (Archives)
Amsterdam, Netherlands

Feed Status: UP
Listen in your browser - HTML5 player(in browser, HTML5)
Click here to listen with your own player(launches your MP3 player)

EHAM 121755Z 23013KT CAVOK 16/11 Q1027 NOSIG

EHAM Flight Activity (Flightaware)

Listeners: 7 out of 3127 total

Amsterdam Approach/Departure TMA West: 121.200

EHAM Apron (North) (Archives)
Amsterdam, Netherlands

Feed Status: UP
Listen in your browser - HTML5 player(in browser, HTML5)
Click here to listen with your own player(launches your MP3 player)

EHAM 121755Z 23013KT CAVOK 16/11 Q1027 NOSIG

EHAM Flight Activity (Flightaware)

Listeners: 0 out of 3127 total

Schiphol Apron (North): 121.880

EHAM Apron (South) (Archives)
Amsterdam, Netherlands

Feed Status: UP
Listen in your browser - HTML5 player(in browser, HTML5)
Click here to listen with your own player(launches your MP3 player)

EHAM 121755Z 23013KT CAVOK 16/11 Q1027 NOSIG

EHAM Flight Activity (Flightaware)

Listeners: 1 out of 3127 total

Schiphol Apron (South): 121.780

EHAM Arrival (Primary) (Archives)
Amsterdam, Netherlands

Feed Status: UP
Listen in your browser - HTML5 player(in browser, HTML5)
Click here to listen with your own player(launches your MP3 player)

EHAM 121755Z 23013KT CAVOK 16/11 Q1027 NOSIG

EHAM Flight Activity (Flightaware)

Listeners: 7 out of 3127 total

Amsterdam Arrival : 118.400

EHAM Arrival Backup/Discrete (Archives)
Amsterdam, Netherlands

Feed Status: UP
Listen in your browser - HTML5 player(in browser, HTML5)
Click here to listen with your own player(launches your MP3 player)

EHAM 121755Z 23013KT CAVOK 16/11 Q1027 NOSIG

EHAM Flight Activity (Flightaware)

Listeners: 0 out of 3127 total

Schiphol Arrival Backup: 126.675

EHAM Clearance Delivery (Archives)
Amsterdam, Netherlands

Feed Status: UP
Listen in your browser - HTML5 player(in browser, HTML5)
Click here to listen with your own player(launches your MP3 player)

EHAM 121755Z 23013KT CAVOK 16/11 Q1027 NOSIG

EHAM Flight Activity (Flightaware)

Listeners: 2 out of 3127 total

Schiphol Clearance Delivery: 121.980

EHAM Ground (Backup) (Archives)
Amsterdam, Netherlands

Feed Status: UP
Listen in your browser - HTML5 player(in browser, HTML5)
Click here to listen with your own player(launches your MP3 player)

EHAM 121755Z 23013KT CAVOK 16/11 Q1027 NOSIG

EHAM Flight Activity (Flightaware)

Listeners: 0 out of 3127 total

Schiphol Ground (Backup): 122.425

EHAM Ground (North) (Archives)
Amsterdam, Netherlands

Feed Status: UP
Listen in your browser - HTML5 player(in browser, HTML5)
Click here to listen with your own player(launches your MP3 player)

EHAM 121755Z 23013KT CAVOK 16/11 Q1027 NOSIG

EHAM Flight Activity (Flightaware)

Listeners: 0 out of 3127 total

Schiphol Ground (North): 121.805

EHAM Ground (South) (Archives)
Amsterdam, Netherlands

Feed Status: UP
Listen in your browser - HTML5 player(in browser, HTML5)
Click here to listen with your own player(launches your MP3 player)

EHAM 121755Z 23013KT CAVOK 16/11 Q1027 NOSIG

EHAM Flight Activity (Flightaware)

Listeners: 0 out of 3127 total

Schiphol Ground (South): 121.705

EHAM Ground (West) (Archives)
Amsterdam, Netherlands

Feed Status: UP
Listen in your browser - HTML5 player(in browser, HTML5)
Click here to listen with your own player(launches your MP3 player)

EHAM 121755Z 23013KT CAVOK 16/11 Q1027 NOSIG

EHAM Flight Activity (Flightaware)

Listeners: 0 out of 3127 total

Schiphol Ground (West): 121.560

EHAM Info North Sea (North) (Archives)
Amsterdam, Netherlands

Feed Status: UP
Listen in your browser - HTML5 player(in browser, HTML5)
Click here to listen with your own player(launches your MP3 player)

EHAM 121755Z 23013KT CAVOK 16/11 Q1027 NOSIG

EHAM Flight Activity (Flightaware)

Listeners: 0 out of 3127 total

Amsterdam Info North Sea (North): 119.175

EHAM Info North Sea (Over Land) (Archives)
Amsterdam, Netherlands

Feed Status: UP
Listen in your browser - HTML5 player(in browser, HTML5)
Click here to listen with your own player(launches your MP3 player)

EHAM 121755Z 23013KT CAVOK 16/11 Q1027 NOSIG

EHAM Flight Activity (Flightaware)

Listeners: 1 out of 3127 total

Amsterdam Info North Sea (Over Land): 124.300

EHAM Schiphol Outbound Planner (Archives)
Amsterdam, Netherlands

Feed Status: UP
Listen in your browser - HTML5 player(in browser, HTML5)
Click here to listen with your own player(launches your MP3 player)

EHAM 121755Z 23013KT CAVOK 16/11 Q1027 NOSIG

EHAM Flight Activity (Flightaware)

Listeners: 0 out of 3127 total

Schiphol Outbound Planner: 121.655

EHAM Tower (18C/36C-27/09) (Archives)
Amsterdam, Netherlands

Feed Status: UP
Listen in your browser - HTML5 player(in browser, HTML5)
Click here to listen with your own player(launches your MP3 player)

EHAM 121755Z 23013KT CAVOK 16/11 Q1027 NOSIG

EHAM Flight Activity (Flightaware)

Listeners: 3 out of 3127 total

Schiphol Tower Main 18C/36C - 27/09: 118.100

EHAM Tower (18L/36R-22/04) (Archives)
Amsterdam, Netherlands

Feed Status: UP
Listen in your browser - HTML5 player(in browser, HTML5)
Click here to listen with your own player(launches your MP3 player)

EHAM 121755Z 23013KT CAVOK 16/11 Q1027 NOSIG

EHAM Flight Activity (Flightaware)

Listeners: 10 out of 3127 total

Schiphol Tower Main 18L/36R - 22/04: 119.225

EHAM Tower Backup (Archives)
Amsterdam, Netherlands

Feed Status: UP
Listen in your browser - HTML5 player(in browser, HTML5)
Click here to listen with your own player(launches your MP3 player)

EHAM 121755Z 23013KT CAVOK 16/11 Q1027 NOSIG

EHAM Flight Activity (Flightaware)

Listeners: 0 out of 3127 total

Schiphol Tower Backup: 119.905

EHAM Tower West (18R/36L) (Archives)
Amsterdam, Netherlands

Feed Status: UP
Listen in your browser - HTML5 player(in browser, HTML5)
Click here to listen with your own player(launches your MP3 player)

EHAM 121755Z 23013KT CAVOK 16/11 Q1027 NOSIG

EHAM Flight Activity (Flightaware)

Listeners: 11 out of 3127 total

Schiphol Tower West 18R/36L: 118.280

EHBK ATIS (Archives)
Beek, Netherlands

Feed Status: UP
Listen in your browser - HTML5 player(in browser, HTML5)
Click here to listen with your own player(launches your MP3 player)

EHBK 121755Z AUTO 22010KT 9999 NSC 18/12 Q1029 NOSIG

EHBK Flight Activity (Flightaware)

Listeners: 0 out of 3127 total

Beek ATIS: 124.575

EHBK Gnd/Twr/App (Archives)
Beek, Netherlands

Feed Status: UP
Listen in your browser - HTML5 player(in browser, HTML5)
Click here to listen with your own player(launches your MP3 player)

EHBK 121755Z AUTO 22010KT 9999 NSC 18/12 Q1029 NOSIG

EHBK Flight Activity (Flightaware)

Listeners: 2 out of 3127 total

Beek Approach: 120.200
Beek Approach: 123.975
Beek Ground: 121.825
Beek Tower: 119.475
Beek Tower: 119.700

MUAC/Eurocontrol Koksy (Archives)
Beek, Netherlands

Feed Status: UP
Listen in your browser - HTML5 player(in browser, HTML5)
Click here to listen with your own player(launches your MP3 player)

EHBK 121755Z AUTO 22010KT 9999 NSC 18/12 Q1029 NOSIG

EHBK Flight Activity (Flightaware)

Listeners: 0 out of 3127 total

MUAC Koksy Sector: 132.205

MUAC/Eurocontrol Koksy High (Archives)
Beek, Netherlands

Feed Status: UP
Listen in your browser - HTML5 player(in browser, HTML5)
Click here to listen with your own player(launches your MP3 player)

EHBK 121755Z AUTO 22010KT 9999 NSC 18/12 Q1029 NOSIG

EHBK Flight Activity (Flightaware)

Listeners: 1 out of 3127 total

MUAC Koksy High Sector: 132.755

MUAC/Eurocontrol Lux High (Archives)
Beek, Netherlands

Feed Status: UP
Listen in your browser - HTML5 player(in browser, HTML5)
Click here to listen with your own player(launches your MP3 player)

EHBK 121755Z AUTO 22010KT 9999 NSC 18/12 Q1029 NOSIG

EHBK Flight Activity (Flightaware)

Listeners: 0 out of 3127 total

MUAC Lux High Sector: 132.315

MUAC/Eurocontrol Lux Low (Archives)
Beek, Netherlands

Feed Status: UP
Listen in your browser - HTML5 player(in browser, HTML5)
Click here to listen with your own player(launches your MP3 player)

EHBK 121755Z AUTO 22010KT 9999 NSC 18/12 Q1029 NOSIG

EHBK Flight Activity (Flightaware)

Listeners: 0 out of 3127 total

MUAC Lux Low Sector: 133.355

MUAC/Eurocontrol Olno Low (Archives)
Beek, Netherlands

Feed Status: UP
Listen in your browser - HTML5 player(in browser, HTML5)
Click here to listen with your own player(launches your MP3 player)

EHBK 121755Z AUTO 22010KT 9999 NSC 18/12 Q1029 NOSIG

EHBK Flight Activity (Flightaware)

Listeners: 0 out of 3127 total

MUAC Olno Low Sector: 132.855

MUAC/Eurocontrol Ruhr (Archives)
Beek, Netherlands

Feed Status: UP
Listen in your browser - HTML5 player(in browser, HTML5)
Click here to listen with your own player(launches your MP3 player)

EHBK 121755Z AUTO 22010KT 9999 NSC 18/12 Q1029 NOSIG

EHBK Flight Activity (Flightaware)

Listeners: 0 out of 3127 total

MUAC Ruhr Sector: 124.435

EHEH Approach #1 (Archives)
Eindhoven, Netherlands

Feed Status: UP
Listen in your browser - HTML5 player(in browser, HTML5)
Click here to listen with your own player(launches your MP3 player)

EHEH 121755Z AUTO 24007KT 220V280 9999 FEW040 OVC045 20/12 Q1028 BLU NOSIG

EHEH Flight Activity (Flightaware)

Listeners: 2 out of 3127 total

DutchMil Info: 132.355
DutchMil Info UHF: 341.600
DutchMil RAPCON South: 123.180
Eindhoven Arrival: 125.530
Eindhoven Arrival (UHF): 265.975
Emergency/Guard: 121.500
Rapcon South UHF: 388.525
Volkel Arrival UHF: 291.200

EHEH ATIS
Eindhoven, Netherlands

Feed Status: DOWN
Offline since: 2024-03-18 19:35:21 UTC

EHEH 121755Z AUTO 24007KT 220V280 9999 FEW040 OVC045 20/12 Q1028 BLU NOSIG

Eindhoven ATIS: 126.030

EHEH Ground #2
Eindhoven, Netherlands

Feed Status: DOWN
Offline since: 2024-03-17 21:50:05 UTC

EHEH 121755Z AUTO 24007KT 220V280 9999 FEW040 OVC045 20/12 Q1028 BLU NOSIG

Eindhoven Ground: 121.930

EHEH Ground #3 (Archives)
Eindhoven, Netherlands

Feed Status: UP
Listen in your browser - HTML5 player(in browser, HTML5)
Click here to listen with your own player(launches your MP3 player)

EHEH 121755Z AUTO 24007KT 220V280 9999 FEW040 OVC045 20/12 Q1028 BLU NOSIG

EHEH Flight Activity (Flightaware)

Listeners: 0 out of 3127 total

Eindhoven Ground: 121.930

EHEH Tower #1 (Archives)
Eindhoven, Netherlands

Feed Status: UP
Listen in your browser - HTML5 player(in browser, HTML5)
Click here to listen with your own player(launches your MP3 player)

EHEH 121755Z AUTO 24007KT 220V280 9999 FEW040 OVC045 20/12 Q1028 BLU NOSIG

EHEH Flight Activity (Flightaware)

Listeners: 3 out of 3127 total

Eindhoven Tower: 131.005
Eindhoven Tower (UHF): 241.550
Generic Tower: 122.100
Generic Tower (UHF): 257.800
Volkel Tower: 136.080
Volkel Tower (UHF): 291.100

EHEH Tower #2 (Archives)
Eindhoven, Netherlands

Feed Status: UP
Listen in your browser - HTML5 player(in browser, HTML5)
Click here to listen with your own player(launches your MP3 player)

EHEH 121755Z AUTO 24007KT 220V280 9999 FEW040 OVC045 20/12 Q1028 BLU NOSIG

EHEH Flight Activity (Flightaware)

Listeners: 0 out of 3127 total

Eindhoven Tower: 131.005

EHEH Tower 122.1 (Archives)
Eindhoven, Netherlands

Feed Status: UP
Listen in your browser - HTML5 player(in browser, HTML5)
Click here to listen with your own player(launches your MP3 player)

EHEH 121755Z AUTO 24007KT 220V280 9999 FEW040 OVC045 20/12 Q1028 BLU NOSIG

EHEH Flight Activity (Flightaware)

Listeners: 0 out of 3127 total

Generic Tower: 122.100

EHGG Approach (Archives)
Groningen, Netherlands

Feed Status: UP
Listen in your browser - HTML5 player(in browser, HTML5)
Click here to listen with your own player(launches your MP3 player)

EHGG 121755Z AUTO 25009KT 220V280 9999 NSC 14/09 Q1026 NOSIG

EHGG Flight Activity (Flightaware)

Listeners: 0 out of 3127 total

Eelde Approach: 120.305

EHGG ATIS (Archives)
Groningen, Netherlands

Feed Status: UP
Listen in your browser - HTML5 player(in browser, HTML5)
Click here to listen with your own player(launches your MP3 player)

EHGG 121755Z AUTO 25009KT 220V280 9999 NSC 14/09 Q1026 NOSIG

EHGG Flight Activity (Flightaware)

Listeners: 0 out of 3127 total

Groningen ATIS: 133.555

EHGG Ground (Archives)
Groningen, Netherlands

Feed Status: UP
Listen in your browser - HTML5 player(in browser, HTML5)
Click here to listen with your own player(launches your MP3 player)

EHGG 121755Z AUTO 25009KT 220V280 9999 NSC 14/09 Q1026 NOSIG

EHGG Flight Activity (Flightaware)

Listeners: 0 out of 3127 total

Eelde Clearance Delivery/Ground: 121.705

EHGG Guard/Emergency (Archives)
Groningen, Netherlands

Feed Status: UP
Listen in your browser - HTML5 player(in browser, HTML5)
Click here to listen with your own player(launches your MP3 player)

EHGG 121755Z AUTO 25009KT 220V280 9999 NSC 14/09 Q1026 NOSIG

EHGG Flight Activity (Flightaware)

Listeners: 0 out of 3127 total

Emergency/Guard: 121.500

EHGG Tower (Archives)
Groningen, Netherlands

Feed Status: UP
Listen in your browser - HTML5 player(in browser, HTML5)
Click here to listen with your own player(launches your MP3 player)

EHGG 121755Z AUTO 25009KT 220V280 9999 NSC 14/09 Q1026 NOSIG

EHGG Flight Activity (Flightaware)

Listeners: 4 out of 3127 total

Eelde Tower: 118.705

EHGG Twr/App (Secondary) (Archives)
Groningen, Netherlands

Feed Status: UP
Listen in your browser - HTML5 player(in browser, HTML5)
Click here to listen with your own player(launches your MP3 player)

EHGG 121755Z AUTO 25009KT 220V280 9999 NSC 14/09 Q1026 NOSIG

EHGG Flight Activity (Flightaware)

Listeners: 0 out of 3127 total

Eelde Tower/App (Backup): 119.705

MUAC/Eurocontrol (EHGG Area) (Archives)
Groningen, Netherlands

Feed Status: UP
Listen in your browser - HTML5 player(in browser, HTML5)
Click here to listen with your own player(launches your MP3 player)

EHGG 121755Z AUTO 25009KT 220V280 9999 NSC 14/09 Q1026 NOSIG

EHGG Flight Activity (Flightaware)

Listeners: 1 out of 3127 total

MUAC Holstein High Sector: 132.775
MUAC Holstein Sector: 120.9333
MUAC Javer High Sector: 134.700
MUAC Jever Sector: 136.4666

EHKD ATIS (Archives)
Den Helder, Netherlands

Feed Status: UP
Listen in your browser - HTML5 player(in browser, HTML5)
Click here to listen with your own player(launches your MP3 player)

EHKD 121755Z AUTO 22014KT 190V250 9999 OVC210 13/10 Q1026 BLU NOSIG

EHKD Flight Activity (Flightaware)

Listeners: 0 out of 3127 total

De Kooy ATIS: 133.015

EHKD Ground/Tower (Archives)
Den Helder, Netherlands

Feed Status: UP
Listen in your browser - HTML5 player(in browser, HTML5)
Click here to listen with your own player(launches your MP3 player)

EHKD 121755Z AUTO 22014KT 190V250 9999 OVC210 13/10 Q1026 BLU NOSIG

EHKD Flight Activity (Flightaware)

Listeners: 0 out of 3127 total

De Kooy Ground: 121.730
De Kooy Tower: 120.130

Approach/Dutch Mil Radar (Archives)
Lelystad, Netherlands

Feed Status: UP
Listen in your browser - HTML5 player(in browser, HTML5)
Click here to listen with your own player(launches your MP3 player)

EHLE 121755Z AUTO 23011KT 9999 NSC 16/10 Q1027 NOSIG

EHLE Flight Activity (Flightaware)

Listeners: 5 out of 3127 total

Approach: 124.530
Dutch Mil Flight Info: 264.325
Dutch Mil Radar: 128.355
Dutch Mil Radar: 132.350

EHLE App/Dep (Archives)
Lelystad, Netherlands

Feed Status: UP
Listen in your browser - HTML5 player(in browser, HTML5)
Click here to listen with your own player(launches your MP3 player)

EHLE 121755Z AUTO 23011KT 9999 NSC 16/10 Q1027 NOSIG

EHLE Flight Activity (Flightaware)

Listeners: 0 out of 3127 total

Lelystad Approach: 134.530

EHLE Clearance Delivery (Archives)
Lelystad, Netherlands

Feed Status: UP
Listen in your browser - HTML5 player(in browser, HTML5)
Click here to listen with your own player(launches your MP3 player)

EHLE 121755Z AUTO 23011KT 9999 NSC 16/10 Q1027 NOSIG

EHLE Flight Activity (Flightaware)

Listeners: 1 out of 3127 total

Lelystad Clearance Delivery: 123.680

EHLE FIC (Archives)
Lelystad, Netherlands

Feed Status: UP
Listen in your browser - HTML5 player(in browser, HTML5)
Click here to listen with your own player(launches your MP3 player)

EHLE 121755Z AUTO 23011KT 9999 NSC 16/10 Q1027 NOSIG

EHLE Flight Activity (Flightaware)

Listeners: 0 out of 3127 total

FIC Amsterdam Information: 124.300

EHLE Tower (Archives)
Lelystad, Netherlands

Feed Status: UP
Listen in your browser - HTML5 player(in browser, HTML5)
Click here to listen with your own player(launches your MP3 player)

EHLE 121755Z AUTO 23011KT 9999 NSC 16/10 Q1027 NOSIG

EHLE Flight Activity (Flightaware)

Listeners: 1 out of 3127 total

Lelystad Tower: 135.180
Lelystad Tower: 123.830

EHMM CTAF (Archives)
Middenmeer, Netherlands

Feed Status: UP
Listen in your browser - HTML5 player(in browser, HTML5)
Click here to listen with your own player(launches your MP3 player)

EHMM Flight Activity (Flightaware)

Listeners: 0 out of 3127 total

Middenmeer CTAF: 123.425

EHMZ (Archives)
Middelburg, Netherlands

Feed Status: UP
Listen in your browser - HTML5 player(in browser, HTML5)
Click here to listen with your own player(launches your MP3 player)

EHMZ Flight Activity (Flightaware)

Listeners: 1 out of 3127 total

Midden-Zeeland Radio: 119.255

EHRD Approach (Archives)
Rotterdam, Netherlands

Feed Status: UP
Listen in your browser - HTML5 player(in browser, HTML5)
Click here to listen with your own player(launches your MP3 player)

EHRD 121755Z AUTO 24013KT 210V270 9999 NSC 17/10 Q1027 NOSIG

EHRD Flight Activity (Flightaware)

Listeners: 1 out of 3127 total

Rotterdam Approach: 122.990
Rotterdam Approach: 124.535
Rotterdam Approach: 281.050

EHRD Clearance Delivery (Archives)
Rotterdam, Netherlands

Feed Status: UP
Listen in your browser - HTML5 player(in browser, HTML5)
Click here to listen with your own player(launches your MP3 player)

EHRD 121755Z AUTO 24013KT 210V270 9999 NSC 17/10 Q1027 NOSIG

EHRD Flight Activity (Flightaware)

Listeners: 2 out of 3127 total

Rotterdam Del/Gnd: 122.180

EHRD Del/Twr (Archives)
Rotterdam, Netherlands

Feed Status: UP
Listen in your browser - HTML5 player(in browser, HTML5)
Click here to listen with your own player(launches your MP3 player)

EHRD 121755Z AUTO 24013KT 210V270 9999 NSC 17/10 Q1027 NOSIG

EHRD Flight Activity (Flightaware)

Listeners: 1 out of 3127 total

Rotterdam Del/Gnd: 122.180
Rotterdam Tower: 118.205

EHRD Gnd/Twr/App (Archives)
Rotterdam, Netherlands

Feed Status: UP
Listen in your browser - HTML5 player(in browser, HTML5)
Click here to listen with your own player(launches your MP3 player)

EHRD 121755Z AUTO 24013KT 210V270 9999 NSC 17/10 Q1027 NOSIG

EHRD Flight Activity (Flightaware)

Listeners: 2 out of 3127 total

Adam Info: 124.300
Regional Guard: 119.705
Rotterdam Approach: 127.025
Rotterdam Del/Gnd: 122.180
Rotterdam Tower: 118.205
SAR: 123.100
SAR: 282.800

EHRD Tower (Archives)
Rotterdam, Netherlands

Feed Status: UP
Listen in your browser - HTML5 player(in browser, HTML5)
Click here to listen with your own player(launches your MP3 player)

EHRD 121755Z AUTO 24013KT 210V270 9999 NSC 17/10 Q1027 NOSIG

EHRD Flight Activity (Flightaware)

Listeners: 1 out of 3127 total

Rotterdam Tower: 118.205
Rotterdam Tower: 362.300

EHTX Radio (Archives)
De Cocksdorp, Netherlands

Feed Status: UP
Listen in your browser - HTML5 player(in browser, HTML5)
Click here to listen with your own player(launches your MP3 player)

EHTX Flight Activity (Flightaware)

Listeners: 1 out of 3127 total

Texel Radio (Ground/Tower): 119.305

EICK Gnd/Twr/App/Dep (Archives)
Cork, Ireland

Feed Status: UP
Listen in your browser - HTML5 player(in browser, HTML5)
Click here to listen with your own player(launches your MP3 player)

EICK 121730Z 22010KT 1800 BR FEW001 OVC002 11/11 Q1023 TEMPO 0700 FG BKN001

EICK Flight Activity (Flightaware)

Listeners: 0 out of 3127 total

Cork Approach: 119.900
Cork Ground: 121.850
Cork Tower: 119.300

EIDW Approach (Archives)
Dublin, Ireland

Feed Status: UP
Listen in your browser - HTML5 player(in browser, HTML5)
Click here to listen with your own player(launches your MP3 player)

EIDW 121730Z 23012KT 180V270 9999 FEW014 BKN017 BKN140 14/11 Q1020 NOSIG

EIDW Flight Activity (Flightaware)

Listeners: 4 out of 3127 total

Dublin Approach: 121.100

EIDW Approach (Final) (Archives)
Dublin, Ireland

Feed Status: UP
Listen in your browser - HTML5 player(in browser, HTML5)
Click here to listen with your own player(launches your MP3 player)

EIDW 121730Z 23012KT 180V270 9999 FEW014 BKN017 BKN140 14/11 Q1020 NOSIG

EIDW Flight Activity (Flightaware)

Listeners: 2 out of 3127 total

Dublin Approach (Final): 119.930

EIDW Clearance Delivery (Archives)
Dublin, Ireland

Feed Status: UP
Listen in your browser - HTML5 player(in browser, HTML5)
Click here to listen with your own player(launches your MP3 player)

EIDW 121730Z 23012KT 180V270 9999 FEW014 BKN017 BKN140 14/11 Q1020 NOSIG

EIDW Flight Activity (Flightaware)

Listeners: 2 out of 3127 total

Dublin Clearance Delivery: 121.875

EIDW Dublin Center (Archives)
Dublin, Ireland

Feed Status: UP
Listen in your browser - HTML5 player(in browser, HTML5)
Click here to listen with your own player(launches your MP3 player)

EIDW 121730Z 23012KT 180V270 9999 FEW014 BKN017 BKN140 14/11 Q1020 NOSIG

EIDW Flight Activity (Flightaware)

Listeners: 2 out of 3127 total

Dublin Center: 120.755

EIDW Gnd/Twr/App/Centre (Archives)
Dublin, Ireland

Feed Status: UP
Listen in your browser - HTML5 player(in browser, HTML5)
Click here to listen with your own player(launches your MP3 player)

EIDW 121730Z 23012KT 180V270 9999 FEW014 BKN017 BKN140 14/11 Q1020 NOSIG

EIDW Flight Activity (Flightaware)

Listeners: 14 out of 3127 total

Dublin Approach: 121.100
Dublin Centre: 132.575
Dublin Ground (North): 125.880
Dublin Ground (South): 121.800
Dublin Tower (North): 124.680
Dublin Tower (South): 118.600

EIDW Ground (Archives)
Dublin, Ireland

Feed Status: UP
Listen in your browser - HTML5 player(in browser, HTML5)
Click here to listen with your own player(launches your MP3 player)

EIDW 121730Z 23012KT 180V270 9999 FEW014 BKN017 BKN140 14/11 Q1020 NOSIG

EIDW Flight Activity (Flightaware)

Listeners: 2 out of 3127 total

Dublin Ground: 121.800

EIDW London Control (North Sea) (Archives)
Dublin, Ireland

Feed Status: UP
Listen in your browser - HTML5 player(in browser, HTML5)
Click here to listen with your own player(launches your MP3 player)

EIDW 121730Z 23012KT 180V270 9999 FEW014 BKN017 BKN140 14/11 Q1020 NOSIG

EIDW Flight Activity (Flightaware)

Listeners: 6 out of 3127 total

London Control (West Drayton/North Sea): 133.700

EIDW Scottish Control (Southeast)
Dublin, Ireland

Feed Status: DOWN
Offline since: 2023-08-19 09:55:21 UTC

EIDW 121730Z 23012KT 180V270 9999 FEW014 BKN017 BKN140 14/11 Q1020 NOSIG

cottish Control (South East): 133.800

EIDW Scottish Control (STAFA)
Dublin, Ireland

Feed Status: DOWN
Offline since: 2024-04-11 20:36:22 UTC

EIDW 121730Z 23012KT 180V270 9999 FEW014 BKN017 BKN140 14/11 Q1020 NOSIG

Scottish Control (STAFA): 134.425

EIDW Scottish Control (Wallasey)
Dublin, Ireland

Feed Status: DOWN
Offline since: 2024-04-10 09:42:04 UTC

EIDW 121730Z 23012KT 180V270 9999 FEW014 BKN017 BKN140 14/11 Q1020 NOSIG

Scottish Control (Wallasey): 128.055

EIDW Tower #1 (Archives)
Dublin, Ireland

Feed Status: UP
Listen in your browser - HTML5 player(in browser, HTML5)
Click here to listen with your own player(launches your MP3 player)

EIDW 121730Z 23012KT 180V270 9999 FEW014 BKN017 BKN140 14/11 Q1020 NOSIG

EIDW Flight Activity (Flightaware)

Listeners: 3 out of 3127 total

Dublin Tower: 118.600

EIDW Tower (North) (Archives)
Dublin, Ireland

Feed Status: UP
Listen in your browser - HTML5 player(in browser, HTML5)
Click here to listen with your own player(launches your MP3 player)

EIDW 121730Z 23012KT 180V270 9999 FEW014 BKN017 BKN140 14/11 Q1020 NOSIG

EIDW Flight Activity (Flightaware)

Listeners: 1 out of 3127 total

Dublin Tower (North): 124.680

EIDW Tower (North/South) (Archives)
Dublin, Ireland

Feed Status: UP
Listen in your browser - HTML5 player(in browser, HTML5)
Click here to listen with your own player(launches your MP3 player)

EIDW 121730Z 23012KT 180V270 9999 FEW014 BKN017 BKN140 14/11 Q1020 NOSIG

EIDW Flight Activity (Flightaware)

Listeners: 0 out of 3127 total

Dublin Tower (North): 124.680
Dublin Tower (South): 118.600

EIKN Gnd/Twr/App (Archives)
Charlestown, Ireland

Feed Status: UP
Listen in your browser - HTML5 player(in browser, HTML5)
Click here to listen with your own player(launches your MP3 player)

EIKN 121730Z 23011KT 170V250 9999 FEW012 BKN021 BKN100 12/10 Q1019 NOSIG

EIKN Flight Activity (Flightaware)

Listeners: 4 out of 3127 total

Connaught Ground: 121.900
Connaught Tower: 130.700
Shannon Low Level: 119.075

EINN Shannon Control High (East) (Archives)
Shannon, Ireland

Feed Status: UP
Listen in your browser - HTML5 player(in browser, HTML5)
Click here to listen with your own player(launches your MP3 player)

EINN 121730Z 22013KT 9999 FEW015 BKN023 BKN028 14/11 Q1021 NOSIG

EINN Flight Activity (Flightaware)

Listeners: 1 out of 3127 total

Shannon Clearance (Oceanic only): 121.700
Shannon Control: 134.260
Shannon Control: 134.630
Shannon Control: 135.230
Shannon Control: 135.600
Shannon Control: 136.255
Shannon Control (BABAN/DEVOL Sector): 132.150

EINN Shannon Control High (West/Coastal) (Archives)
Shannon, Ireland

Feed Status: UP
Listen in your browser - HTML5 player(in browser, HTML5)
Click here to listen with your own player(launches your MP3 player)

EINN 121730Z 22013KT 9999 FEW015 BKN023 BKN028 14/11 Q1021 NOSIG

EINN Flight Activity (Flightaware)

Listeners: 2 out of 3127 total

Shannon Control: 131.150
Shannon Control: 125.880
Shannon Control: 120.040
Shannon Control: 122.980
Shannon Control: 127.130
Shannon Control: 129.665
Shannon Control: 133.360

EINN Shannon Control Low (Archives)
Shannon, Ireland

Feed Status: UP
Listen in your browser - HTML5 player(in browser, HTML5)
Click here to listen with your own player(launches your MP3 player)

EINN 121730Z 22013KT 9999 FEW015 BKN023 BKN028 14/11 Q1021 NOSIG

EINN Flight Activity (Flightaware)

Listeners: 1 out of 3127 total

Shannon Control (Low): 119.080
Shannon Control Low: 124.700

EINN Twr/App #1 (Archives)
Shannon, Ireland

Feed Status: UP
Listen in your browser - HTML5 player(in browser, HTML5)
Click here to listen with your own player(launches your MP3 player)

EINN 121730Z 22013KT 9999 FEW015 BKN023 BKN028 14/11 Q1021 NOSIG

EINN Flight Activity (Flightaware)

Listeners: 4 out of 3127 total

Aer Lingus Ops: 131.500
Service Air Ops: 131.450
Shannon Approach Radar: 121.400
Shannon Control: Misc
Shannon Ground: 121.800
Shannon Tower: 118.700
Sig Ops (Pre-Clearance): 131.590

ENAL Twr/App (Archives)
Alesund, Norway

Feed Status: UP
Listen in your browser - HTML5 player(in browser, HTML5)
Click here to listen with your own player(launches your MP3 player)

ENAL 121750Z 24018KT 9999 -DZ FEW007 SCT020 BKN026 08/06 Q1009

ENAL Flight Activity (Flightaware)

Listeners: 0 out of 3127 total

More Approach: 129.325
More Approach: 119.350
Vigra Tower: 118.100

ENAT Twr/App/Control (Archives)
Alta, Norway

Feed Status: UP
Listen in your browser - HTML5 player(in browser, HTML5)
Click here to listen with your own player(launches your MP3 player)

ENAT 121750Z 16012KT 9999 SCT045 BKN130 03/M01 Q1002 RMK WIND 700FT 17022KT

ENAT Flight Activity (Flightaware)

Listeners: 0 out of 3127 total

Alta Tower (to boat, Harbour Channel 12): 156.600
Alta Tower (to vehicle): 462.400
Alta Tower/Approach: 120.400
Norway Control: 126.700

ENBO Approach (Archives)
Bodo, Norway

Feed Status: UP
Listen in your browser - HTML5 player(in browser, HTML5)
Click here to listen with your own player(launches your MP3 player)

ENBO 121750Z 17010KT 7000 RA FEW004 SCT015 BKN019 06/05 Q0999

ENBO Flight Activity (Flightaware)

Listeners: 0 out of 3127 total

Bodo Approach: 119.700

ENBO Tower (Archives)
Bodo, Norway

Feed Status: UP
Listen in your browser - HTML5 player(in browser, HTML5)
Click here to listen with your own player(launches your MP3 player)

ENBO 121750Z 17010KT 7000 RA FEW004 SCT015 BKN019 06/05 Q0999

ENBO Flight Activity (Flightaware)

Listeners: 1 out of 3127 total

Bodo Tower: 118.100

ENCN Tower/Approach (Archives)
Kristiansand, Norway

Feed Status: UP
Listen in your browser - HTML5 player(in browser, HTML5)
Click here to listen with your own player(launches your MP3 player)

ENCN 121750Z 16009KT CAVOK 11/08 Q1016

ENCN Flight Activity (Flightaware)

Listeners: 2 out of 3127 total

Kjevik Tower: 118.100
Kjevik Tower/Approach: 119.950

ENGM App/Polaris ACC (Archives)
Honefoss, Norway

Feed Status: UP
Listen in your browser - HTML5 player(in browser, HTML5)
Click here to listen with your own player(launches your MP3 player)

ENEG Flight Activity (Flightaware)

Listeners: 3 out of 3127 total

ENEG Tower: 122.700
Polaris ACC Sector 13: 134.925
Polaris ACC Sector 18: 125.700
Polaris ACC Sector 3: 125.050
Polaris ACC Sector 5: 127.250
Polaris ACC Sector 7: 124.775
Polaris ACC Sector 8: 134.350

ENEV Twr/App/ACC (Archives)
Evenes, Norway

Feed Status: UP
Listen in your browser - HTML5 player(in browser, HTML5)
Click here to listen with your own player(launches your MP3 player)

ENEV 121750Z VRB02KT 9999 -DZ SCT013 BKN030 04/02 Q0999 NOSIG RMK WIND 1400FT 17011KT

ENEV Flight Activity (Flightaware)

Listeners: 1 out of 3127 total

Evenes Approach: 120.100
Evenes Tower: 118.000
Norway ACC (Bodo Sector 25): 126.450

ENGK Info
Arendal, Norway

Feed Status: DOWN
Offline since: 2024-04-12 17:13:04 UTC

ENGK 241420Z 21004KT 170V260 4500 BR BKN003 06/06 Q1015

Gullknapp Info: 129.900

ENGM App/Polaris ACC (Archives)
Oslo, Norway

Feed Status: UP
Listen in your browser - HTML5 player(in browser, HTML5)
Click here to listen with your own player(launches your MP3 player)

ENEG Flight Activity (Flightaware)

Listeners: 3 out of 3127 total

ENEG Tower: 122.700
Polaris ACC Sector 13: 134.925
Polaris ACC Sector 18: 125.700
Polaris ACC Sector 3: 125.050
Polaris ACC Sector 5: 127.250
Polaris ACC Sector 7: 124.775
Polaris ACC Sector 8: 134.350

ENGM Tower (Archives)
Oslo, Norway

Feed Status: UP
Listen in your browser - HTML5 player(in browser, HTML5)
Click here to listen with your own player(launches your MP3 player)

ENGM 121750Z 20011KT CAVOK 12/07 Q1011 NOSIG

ENGM Flight Activity (Flightaware)

Listeners: 1 out of 3127 total

Oslo Tower (East): 120.100
Oslo Tower (West): 118.300

ENHD Tower (Archives)
Haugesund, Norway

Feed Status: UP
Listen in your browser - HTML5 player(in browser, HTML5)
Click here to listen with your own player(launches your MP3 player)

ENHD 121750Z 18004KT 150V210 9000 4000E VCFG SCT001 BKN006 08/07 Q1015

ENHD Flight Activity (Flightaware)

Listeners: 0 out of 3127 total

Karmoy Tower: 120.500

ENJB CTAF (Archives)
Tonsberg, Norway

Feed Status: UP
Listen in your browser - HTML5 player(in browser, HTML5)
Click here to listen with your own player(launches your MP3 player)

ENTO 121750Z 20011KT CAVOK 11/09 Q1014 NOSIG

ENTO Flight Activity (Flightaware)

Listeners: 0 out of 3127 total

Jarlsberg CTAF: 122.300

ENKJ CTAF/RDO/Guard (Archives)
Kjeller, Norway

Feed Status: UP
Listen in your browser - HTML5 player(in browser, HTML5)
Click here to listen with your own player(launches your MP3 player)

ENKJ Flight Activity (Flightaware)

Listeners: 0 out of 3127 total

Emergency/Guard: 121.500
Kjeller RDO: 119.100
Kjeller UNICOM: 123.500

ENOR Sector 8 (Archives)
Moss, Norway

Feed Status: UP
Listen in your browser - HTML5 player(in browser, HTML5)
Click here to listen with your own player(launches your MP3 player)

ENOR Flight Activity (Flightaware)

Listeners: 0 out of 3127 total

Norway Center (FIR) Sector 8: 118.875

ENRY Tower (Archives)
Moss, Norway

Feed Status: UP
Listen in your browser - HTML5 player(in browser, HTML5)
Click here to listen with your own player(launches your MP3 player)

ENRY 121750Z 19012KT 9999 SCT003 08/07 Q1014

ENRY Flight Activity (Flightaware)

Listeners: 0 out of 3127 total

Rygge Tower: 119.500

ENTC Tower/App (Archives)
Langnes, Norway

Feed Status: UP
Listen in your browser - HTML5 player(in browser, HTML5)
Click here to listen with your own player(launches your MP3 player)

ENTC 121750Z 20019KT 9999 -SHRA SCT021 SCT024 OVC033 04/M01 Q0999 RMK WIND 2600FT 17032KT

ENTC Flight Activity (Flightaware)

Listeners: 1 out of 3127 total

Langnes Tower: 118.300
Langnes VDF (Approach): 123.750

ENTO App/Dep (Archives)
Sandefjord, Norway

Feed Status: UP
Listen in your browser - HTML5 player(in browser, HTML5)
Click here to listen with your own player(launches your MP3 player)

ENTO 121750Z 20011KT CAVOK 11/09 Q1014 NOSIG

ENTO Flight Activity (Flightaware)

Listeners: 0 out of 3127 total

Sandefjord Approach (TMA): 134.050

ENTO Control Sector 4 (Archives)
Sandefjord, Norway

Feed Status: UP
Listen in your browser - HTML5 player(in browser, HTML5)
Click here to listen with your own player(launches your MP3 player)

ENTO 121750Z 20011KT CAVOK 11/09 Q1014 NOSIG

ENTO Flight Activity (Flightaware)

Listeners: 0 out of 3127 total

Norway control Sector 4: 118.875

ENTO Tower (Archives)
Sandefjord, Norway

Feed Status: UP
Listen in your browser - HTML5 player(in browser, HTML5)
Click here to listen with your own player(launches your MP3 player)

ENTO 121750Z 20011KT CAVOK 11/09 Q1014 NOSIG

ENTO Flight Activity (Flightaware)

Listeners: 0 out of 3127 total

Sandefjord Tower: 118.650

ENTO Tower/App (Archives)
Sandefjord, Norway

Feed Status: UP
Listen in your browser - HTML5 player(in browser, HTML5)
Click here to listen with your own player(launches your MP3 player)

ENTO 121750Z 20011KT CAVOK 11/09 Q1014 NOSIG

ENTO Flight Activity (Flightaware)

Listeners: 1 out of 3127 total

ENJB Tonsberg Airport - Jarlsberg - CTAF: 122.300
Farris Approach (TCA): 134.050
Sandefjord Tower: 118.650

ENTO Twr/App (Archives)
Sandefjord, Norway

Feed Status: UP
Listen in your browser - HTML5 player(in browser, HTML5)
Click here to listen with your own player(launches your MP3 player)

ENTO 121750Z 20011KT CAVOK 11/09 Q1014 NOSIG

ENTO Flight Activity (Flightaware)

Listeners: 0 out of 3127 total

Sandefjord Approach (TMA): 134.050
Sandefjord Tower: 118.650

ENVA Gnd/Twr/App (Archives)
Trondheim, Norway

Feed Status: UP
Listen in your browser - HTML5 player(in browser, HTML5)
Click here to listen with your own player(launches your MP3 player)

ENVA 121750Z VRB02KT 9999 FEW035 SCT047 BKN062 10/07 Q1007 NOSIG RMK WIND 670FT 27007KT

ENVA Flight Activity (Flightaware)

Listeners: 2 out of 3127 total

Trondheim Approach: 118.600
Trondheim Ground: 121.600
Trondheim Tower: 119.400

ENZV Gnd/Twr/App (Archives)
Stavanger, Norway

Feed Status: UP
Listen in your browser - HTML5 player(in browser, HTML5)
Click here to listen with your own player(launches your MP3 player)

ENZV 121750Z 18007KT 2500 BR VV004 08/07 Q1016 TEMPO 1200 BR VV002

ENZV Flight Activity (Flightaware)

Listeners: 4 out of 3127 total

Sola Approach/Departure: 119.600
Sola Ground: 121.750
Sola Tower: 118.350

EPKK Tower/App (Archives)
Krakow, Poland

Feed Status: UP
Listen in your browser - HTML5 player(in browser, HTML5)
Click here to listen with your own player(launches your MP3 player)

EPKK 121730Z 30004KT 240V350 CAVOK 17/07 Q1027

EPKK Flight Activity (Flightaware)

Listeners: 5 out of 3127 total

Krakow Approach: 121.075
Krakow Approach: 123.255
Krakow Tower: 123.255

EPKR CTAF (Archives)
Krosno, Poland

Feed Status: UP
Listen in your browser - HTML5 player(in browser, HTML5)
Click here to listen with your own player(launches your MP3 player)

EPKR Flight Activity (Flightaware)

Listeners: 0 out of 3127 total

Krosno CTAF: 119.555

EPKT Del/Twr/App (Archives)
Katowice, Poland

Feed Status: UP
Listen in your browser - HTML5 player(in browser, HTML5)
Click here to listen with your own player(launches your MP3 player)

EPKT 121730Z 25006KT CAVOK 15/08 Q1027

EPKT Flight Activity (Flightaware)

Listeners: 0 out of 3127 total

Katowice Delivery: 121.800
Katowice Tower: 129.250
Krakow Approach: 135.400
Krakow Approach: 121.075

EPKT Delivery/Approach (Archives)
Katowice, Poland

Feed Status: UP
Listen in your browser - HTML5 player(in browser, HTML5)
Click here to listen with your own player(launches your MP3 player)

EPKT 121730Z 25006KT CAVOK 15/08 Q1027

EPKT Flight Activity (Flightaware)

Listeners: 0 out of 3127 total

Katowice Delivery: 121.800
Krakow Approach: 121.075

EPKT Tower/Approach (Archives)
Katowice, Poland

Feed Status: UP
Listen in your browser - HTML5 player(in browser, HTML5)
Click here to listen with your own player(launches your MP3 player)

EPKT 121730Z 25006KT CAVOK 15/08 Q1027

EPKT Flight Activity (Flightaware)

Listeners: 0 out of 3127 total

Katowice Tower: 129.250
Krakow Approach: 135.400

EPLB Tower (Archives)
Lublin, Poland

Feed Status: UP
Listen in your browser - HTML5 player(in browser, HTML5)
Click here to listen with your own player(launches your MP3 player)

EPLB 121730Z 30007KT CAVOK 13/09 Q1027

EPLB Flight Activity (Flightaware)

Listeners: 0 out of 3127 total

Lublin Tower: 136.430

EPLL Tower (Archives)
Lodz, Poland

Feed Status: UP
Listen in your browser - HTML5 player(in browser, HTML5)
Click here to listen with your own player(launches your MP3 player)

EPLL 121730Z 35002KT CAVOK 14/09 Q1027

EPLL Flight Activity (Flightaware)

Listeners: 0 out of 3127 total

Lodz Tower: 124.230

EPLS CTAF/Radio (Archives)
Leszno, Poland

Feed Status: UP
Listen in your browser - HTML5 player(in browser, HTML5)
Click here to listen with your own player(launches your MP3 player)

EPLS Flight Activity (Flightaware)

Listeners: 0 out of 3127 total

Leszno Radio: 122.305

EPGR Radio (Archives)
Olsztyn, Poland

Feed Status: UP
Listen in your browser - HTML5 player(in browser, HTML5)
Click here to listen with your own player(launches your MP3 player)

EPOD Flight Activity (Flightaware)

Listeners: 0 out of 3127 total

EPGR - Gryzliny Radio: 119.055

EPOD FIS (Archives)
Olsztyn, Poland

Feed Status: UP
Listen in your browser - HTML5 player(in browser, HTML5)
Click here to listen with your own player(launches your MP3 player)

EPOD Flight Activity (Flightaware)

Listeners: 0 out of 3127 total

FIS Olsztyn Informacja: 118.775

EPOD Radio (Archives)
Olsztyn, Poland

Feed Status: UP
Listen in your browser - HTML5 player(in browser, HTML5)
Click here to listen with your own player(launches your MP3 player)

EPOD Flight Activity (Flightaware)

Listeners: 0 out of 3127 total

EPOD - Olsztyn Dajtki Radio: 124.480

EPPO Twr/App/FIS (Archives)
Poznan, Poland

Feed Status: UP
Listen in your browser - HTML5 player(in browser, HTML5)
Click here to listen with your own player(launches your MP3 player)

EPPO 121730Z 23002KT CAVOK 15/11 Q1026

EPPO Flight Activity (Flightaware)

Listeners: 2 out of 3127 total

Poznan Approach: 129.025
Poznan Approach: 127.225
Poznan FIS: 126.300
Poznan Tower: 119.975

EPWA Approach #1 (Archives)
Warsaw, Poland

Feed Status: UP
Listen in your browser - HTML5 player(in browser, HTML5)
Click here to listen with your own player(launches your MP3 player)

EPWA 121730Z 25007KT 9999 FEW038 14/08 Q1026 NOSIG

EPWA Flight Activity (Flightaware)

Listeners: 6 out of 3127 total

Warsaw Approach: 128.805

EPWA Approach #2 (Archives)
Warsaw, Poland

Feed Status: UP
Listen in your browser - HTML5 player(in browser, HTML5)
Click here to listen with your own player(launches your MP3 player)

EPWA 121730Z 25007KT 9999 FEW038 14/08 Q1026 NOSIG

EPWA Flight Activity (Flightaware)

Listeners: 1 out of 3127 total

Warsaw Approach: 125.055

EPWA Ground (Archives)
Warsaw, Poland

Feed Status: UP
Listen in your browser - HTML5 player(in browser, HTML5)
Click here to listen with your own player(launches your MP3 player)

EPWA 121730Z 25007KT 9999 FEW038 14/08 Q1026 NOSIG

EPWA Flight Activity (Flightaware)

Listeners: 1 out of 3127 total

Warsaw Ground: 121.900

EPWA Tower (Archives)
Warsaw, Poland

Feed Status: UP
Listen in your browser - HTML5 player(in browser, HTML5)
Click here to listen with your own player(launches your MP3 player)

EPWA 121730Z 25007KT 9999 FEW038 14/08 Q1026 NOSIG

EPWA Flight Activity (Flightaware)

Listeners: 0 out of 3127 total

Warsaw Tower: 118.300

ESGG Approach
Gothenburg, Sweden

Feed Status: DOWN
Offline since: 2024-04-12 11:13:22 UTC

ESGG 121750Z 25009KT 0150 R03/0450N R21/0550N FG VV002 06/06 Q1017

Goteborg Control: 124.205

ESGG Tower (Archives)
Gothenburg, Sweden

Feed Status: UP
Listen in your browser - HTML5 player(in browser, HTML5)
Click here to listen with your own player(launches your MP3 player)

ESGG 121750Z 25009KT 0150 R03/0450N R21/0550N FG VV002 06/06 Q1017

ESGG Flight Activity (Flightaware)

Listeners: 1 out of 3127 total

Landvetter Tower: 121.680

ESGG Twr/App (Archives)
Gothenburg, Sweden

Feed Status: UP
Listen in your browser - HTML5 player(in browser, HTML5)
Click here to listen with your own player(launches your MP3 player)

ESGG 121750Z 25009KT 0150 R03/0450N R21/0550N FG VV002 06/06 Q1017

ESGG Flight Activity (Flightaware)

Listeners: 0 out of 3127 total

Goteborg Control: 124.205
Landvetter Tower: 121.680

ESMQ Tower (Archives)
Kalmar, Sweden

Feed Status: UP
Listen in your browser - HTML5 player(in browser, HTML5)
Click here to listen with your own player(launches your MP3 player)

ESMQ 121750Z AUTO 22009KT 6000 FEW005/// SCT007/// BKN008/// 12/11 Q1016

ESMQ Flight Activity (Flightaware)

Listeners: 1 out of 3127 total

Kalmar Tower: 130.805

ESMS Radar (Archives)
Svedala, Sweden

Feed Status: UP
Listen in your browser - HTML5 player(in browser, HTML5)
Click here to listen with your own player(launches your MP3 player)

ESMS 121750Z 27014KT 9999 OVC008 11/10 Q1021

ESMS Flight Activity (Flightaware)

Listeners: 2 out of 3127 total

Sweden Control (Sector L, Malmo): 134.980

ESMS Tower
Svedala, Sweden

Feed Status: DOWN
Offline since: 2024-01-05 09:18:39 UTC

ESMS 121750Z 27014KT 9999 OVC008 11/10 Q1021

Malmo Tower: 118.800

ESOE Tower/Control (Archives)
Orebro, Sweden

Feed Status: UP
Listen in your browser - HTML5 player(in browser, HTML5)
Click here to listen with your own player(launches your MP3 player)

ESOE 121750Z 23005KT 210V280 9999 BKN024 11/09 Q1013

ESOE Flight Activity (Flightaware)

Listeners: 0 out of 3127 total

Orebro Tower: 120.275
Orebro Tower: 120.280
Sweden Control: 131.125
Sweden Control (aircraft only): 131.125

ESPA Twr/Control (Archives)
Lulea, Sweden

Feed Status: UP
Listen in your browser - HTML5 player(in browser, HTML5)
Click here to listen with your own player(launches your MP3 player)

ESPA 121750Z 19008KT CAVOK 02/M02 Q1007

ESPA Flight Activity (Flightaware)

Listeners: 2 out of 3127 total

Emergency/Guard: 121.500
Kallax Control: 125.450
Kallax Tower: 128.200
Sweden Control North: 131.050

ESSG Misc (Archives)
Ludvika, Sweden

Feed Status: UP
Listen in your browser - HTML5 player(in browser, HTML5)
Click here to listen with your own player(launches your MP3 player)

ESSG Flight Activity (Flightaware)

Listeners: 1 out of 3127 total

Borlange Tower: 127.305
Club Frequency: 123.375
Club Frequency: 123.450
Club Frequency: 123.425
Club Frequency: 123.525
Club Frequency: 123.350
Club Frequency: 123.300
Club Frequency: 123.200
Club Frequency: 123.550
Club Frequency: 123.600
Club Frequency: 123.650
Emergency/Guard: 121.500
Hagfors Airport: 122.230
Karlstad Airport: 119.455
Ludvika Club Freq: 123.150
Mora Airport: 119.055
Orebro Airport: 120.280
Orsa Club Frequency: 123.400
Orsa Club Frequency: 123.500
Scandinavian Mountains Airport: 124.460
Search and Rescue: 123.100
Sweden Control: 131.055
Sweden Control: 131.125
Sweden Control: 131.155
Sweden Control: 132.765
Sweden Control: 131.130
Sweden Control: 129.180
Sweden Control: 128.630
Sweden Control: 132.150
Torsby Airport: 122.055
Vasteras Control: 125.955

ESSL Twr/App/Control (Archives)
Linkoping, Sweden

Feed Status: UP
Listen in your browser - HTML5 player(in browser, HTML5)
Click here to listen with your own player(launches your MP3 player)

ESSL 121750Z AUTO 27011KT 9999 FEW005/// BKN009/// OVC034/// 11/10 Q1013

ESSL Flight Activity (Flightaware)

Listeners: 0 out of 3127 total

Emergency/Guard: 121.500
Linkoping Tower: 118.800
Linkoping Tower (Secondary): 123.400
Ostgota Control: 127.350
Ostgota Control: 126.400
Ostgota Control: 135.850
Ostgota Control: 132.950
Ostgota Control: 128.700
Ostgota Control (Malmen Sector): 133.100
Ostgota Control/Sweden Control: 118.400

ESSP Twr/App/Control (Archives)
Norrkoping, Sweden

Feed Status: UP
Listen in your browser - HTML5 player(in browser, HTML5)
Click here to listen with your own player(launches your MP3 player)

ESSP 121750Z AUTO 26004KT 7000 SCT006/// BKN011/// BKN014/// 11/11 Q1013 REDZ

ESSP Flight Activity (Flightaware)

Listeners: 1 out of 3127 total

Kungsangen Tower: 120.355
Osgota Approach/Departure: 132.955
Sweden Control: 118.280
Sweden Control: 118.405
Sweden Control: 134.455

EVRA Approach (Archives)
Riga, Latvia

Feed Status: UP
Listen in your browser - HTML5 player(in browser, HTML5)
Click here to listen with your own player(launches your MP3 player)

EVRA 121750Z 22007KT 9999 FEW026 11/06 Q1019 NOSIG

EVRA Flight Activity (Flightaware)

Listeners: 0 out of 3127 total

Riga Approach: 129.925

EVRA CTAF (Archives)
Riga, Latvia

Feed Status: UP
Listen in your browser - HTML5 player(in browser, HTML5)
Click here to listen with your own player(launches your MP3 player)

EVRA 121750Z 22007KT 9999 FEW026 11/06 Q1019 NOSIG

EVRA Flight Activity (Flightaware)

Listeners: 0 out of 3127 total

Riga Approach (evenings): 134.850
Riga CTAF: 123.950

EVRA FIC (Archives)
Riga, Latvia

Feed Status: UP
Listen in your browser - HTML5 player(in browser, HTML5)
Click here to listen with your own player(launches your MP3 player)

EVRA 121750Z 22007KT 9999 FEW026 11/06 Q1019 NOSIG

EVRA Flight Activity (Flightaware)

Listeners: 0 out of 3127 total

Riga FIC: 120.225

EVRA Tower/Guard (Archives)
Riga, Latvia

Feed Status: UP
Listen in your browser - HTML5 player(in browser, HTML5)
Click here to listen with your own player(launches your MP3 player)

EVRA 121750Z 22007KT 9999 FEW026 11/06 Q1019 NOSIG

EVRA Flight Activity (Flightaware)

Listeners: 0 out of 3127 total

Emergency/Guard: 121.500
Riga Tower: 118.100

EYVI Twr/App/Misc (Archives)
Vilnius, Lithuania

Feed Status: UP
Listen in your browser - HTML5 player(in browser, HTML5)
Click here to listen with your own player(launches your MP3 player)

EYVI 121750Z 27006KT 220V310 CAVOK 12/04 Q1022 NOSIG

EYVI Flight Activity (Flightaware)

Listeners: 3 out of 3127 total

Emergency / GUARD: 121.500
FlyLAL, AirBaltic transit services: 131.900
FlyLAL, AirBaltic transit services: 131.600
FlyLAL, AirBaltic transit services: 131.500
Kaunas Approach (EYKA): 124.200
Vilnius Approach: 120.700
Vilnius Control: 132.275
Vilnius Control: 133.425
Vilnius Control: 133.300
Vilnius FIS: 123.850
Vilnius Tower: 118.200
Zokniai A/G (mil): 122.775

LBBG Twr/App (Archives)
Burgas, Bulgaria

Feed Status: UP
Listen in your browser - HTML5 player(in browser, HTML5)
Click here to listen with your own player(launches your MP3 player)

LBBG 121800Z AUTO 23002KT 9999 NCD 15/12 Q1025 NOSIG

LBBG Flight Activity (Flightaware)

Listeners: 1 out of 3127 total

Burgas Approach: 125.100
Burgas Tower: 118.000

LBPD Tower (Archives)
Plovdiv, Bulgaria

Feed Status: UP
Listen in your browser - HTML5 player(in browser, HTML5)
Click here to listen with your own player(launches your MP3 player)

LBSF 121800Z AUTO VRB01KT 9999 NCD 17/08 Q1025 NOSIG

LBSF Flight Activity (Flightaware)

Listeners: 0 out of 3127 total

Plovdiv Tower: 125.500
Plovdiv Tower: 133.600

LBSF ATIS
Sofia, Bulgaria

Feed Status: DOWN
Offline since: 2024-03-10 16:03:06 UTC

LBSF 121800Z AUTO VRB01KT 9999 NCD 17/08 Q1025 NOSIG

Sofia ATIS: 126.680

LBSF Sofia Control East
Sofia, Bulgaria

Feed Status: DOWN
Offline since: 2023-08-29 14:53:39 UTC

LBSF 121800Z AUTO VRB01KT 9999 NCD 17/08 Q1025 NOSIG

Sofia Control (East/Middle Sector): 129.100
Sofia Control (Varna Sector): 134.700

LBSF Twr/App #1
Sofia, Bulgaria

Feed Status: DOWN
Offline since: 2024-02-13 09:30:06 UTC

LBSF 121800Z AUTO VRB01KT 9999 NCD 17/08 Q1025 NOSIG

Sofia Approach: 123.700
Sofia Approach: 129.900
Sofia Tower: 118.100
Sofia Tower: 120.200

LBSF Twr/App #2 (Archives)
Sofia, Bulgaria

Feed Status: UP
Listen in your browser - HTML5 player(in browser, HTML5)
Click here to listen with your own player(launches your MP3 player)

LBSF 121800Z AUTO VRB01KT 9999 NCD 17/08 Q1025 NOSIG

LBSF Flight Activity (Flightaware)

Listeners: 2 out of 3127 total

Sofia Approach: 123.700
Sofia Tower: 118.100

LHBP Approach (Archives)
Budapest, Hungary

Feed Status: UP
Listen in your browser - HTML5 player(in browser, HTML5)
Click here to listen with your own player(launches your MP3 player)

LHBP 121800Z 31006KT CAVOK 17/05 Q1027 NOSIG

LHBP Flight Activity (Flightaware)

Listeners: 3 out of 3127 total

Budapest Approach: 122.975
Budapest Approach (Upper): 123.860

LHBP Approach (Director) (Archives)
Budapest, Hungary

Feed Status: UP
Listen in your browser - HTML5 player(in browser, HTML5)
Click here to listen with your own player(launches your MP3 player)

LHBP 121800Z 31006KT CAVOK 17/05 Q1027 NOSIG

LHBP Flight Activity (Flightaware)

Listeners: 0 out of 3127 total

Budapest Director: 119.510

LHBP ATIS (Archives)
Budapest, Hungary

Feed Status: UP
Listen in your browser - HTML5 player(in browser, HTML5)
Click here to listen with your own player(launches your MP3 player)

LHBP 121800Z 31006KT CAVOK 17/05 Q1027 NOSIG

LHBP Flight Activity (Flightaware)

Listeners: 0 out of 3127 total

Budapest ATIS: 132.380

LHBP Clearance Delivery (Archives)
Budapest, Hungary

Feed Status: UP
Listen in your browser - HTML5 player(in browser, HTML5)
Click here to listen with your own player(launches your MP3 player)

LHBP 121800Z 31006KT CAVOK 17/05 Q1027 NOSIG

LHBP Flight Activity (Flightaware)

Listeners: 0 out of 3127 total

Budapest Clearance Delivery: 134.540

LHBP Ground (Archives)
Budapest, Hungary

Feed Status: UP
Listen in your browser - HTML5 player(in browser, HTML5)
Click here to listen with your own player(launches your MP3 player)

LHBP 121800Z 31006KT CAVOK 17/05 Q1027 NOSIG

LHBP Flight Activity (Flightaware)

Listeners: 1 out of 3127 total

Budapest Ground: 121.910

LHBP Info (Archives)
Budapest, Hungary

Feed Status: UP
Listen in your browser - HTML5 player(in browser, HTML5)
Click here to listen with your own player(launches your MP3 player)

LHBP 121800Z 31006KT CAVOK 17/05 Q1027 NOSIG

LHBP Flight Activity (Flightaware)

Listeners: 2 out of 3127 total

Budapest Info: 119.350

LHBP Tower #2 (Archives)
Budapest, Hungary

Feed Status: UP
Listen in your browser - HTML5 player(in browser, HTML5)
Click here to listen with your own player(launches your MP3 player)

LHBP 121800Z 31006KT CAVOK 17/05 Q1027 NOSIG

LHBP Flight Activity (Flightaware)

Listeners: 2 out of 3127 total

Budapest Tower: 118.100

LHBP Tower (Backup) (Archives)
Budapest, Hungary

Feed Status: UP
Listen in your browser - HTML5 player(in browser, HTML5)
Click here to listen with your own player(launches your MP3 player)

LHBP 121800Z 31006KT CAVOK 17/05 Q1027 NOSIG

LHBP Flight Activity (Flightaware)

Listeners: 2 out of 3127 total


LHBP Twr/Info
Budapest, Hungary

Feed Status: DOWN
Offline since: 2024-04-12 07:29:22 UTC

LHBP 121800Z 31006KT CAVOK 17/05 Q1027 NOSIG

Budapest Info: 119.350
Budapest Tower: 118.100

LHCC Control (East/West) (Archives)
Budapest, Hungary

Feed Status: UP
Listen in your browser - HTML5 player(in browser, HTML5)
Click here to listen with your own player(launches your MP3 player)

LHBP 121800Z 31006KT CAVOK 17/05 Q1027 NOSIG

LHBP Flight Activity (Flightaware)

Listeners: 1 out of 3127 total

Budapest Control (East Low Sector): 120.375
Budapest Control (West Low Sector): 133.200

LHDC Info/Tower (Archives)
Debrecen, Hungary

Feed Status: UP
Listen in your browser - HTML5 player(in browser, HTML5)
Click here to listen with your own player(launches your MP3 player)

LHDC 121715Z AUTO 30004KT CAVOK 20/06 Q1026 NOSIG

LHDC Flight Activity (Flightaware)

Listeners: 1 out of 3127 total

Debrecen Info/Tower: 125.900

LJLJ Info (Archives)
Ljubljana, Slovenia

Feed Status: UP
Listen in your browser - HTML5 player(in browser, HTML5)
Click here to listen with your own player(launches your MP3 player)

LJLJ 121730Z 16004KT CAVOK 20/11 Q1027 NOSIG

LJLJ Flight Activity (Flightaware)

Listeners: 0 out of 3127 total

Ljubljana Info: 118.475

LJLJ Radar (Archives)
Ljubljana, Slovenia

Feed Status: UP
Listen in your browser - HTML5 player(in browser, HTML5)
Click here to listen with your own player(launches your MP3 player)

LJLJ 121730Z 16004KT CAVOK 20/11 Q1027 NOSIG

LJLJ Flight Activity (Flightaware)

Listeners: 1 out of 3127 total

Ljubljana Approach: 135.275

LJLJ Tower (Archives)
Ljubljana, Slovenia

Feed Status: UP
Listen in your browser - HTML5 player(in browser, HTML5)
Click here to listen with your own player(launches your MP3 player)

LJLJ 121730Z 16004KT CAVOK 20/11 Q1027 NOSIG

LJLJ Flight Activity (Flightaware)

Listeners: 0 out of 3127 total

Ljubljana Tower: 118.000

LJMB Tower (Archives)
Maribor, Slovenia

Feed Status: UP
Listen in your browser - HTML5 player(in browser, HTML5)
Click here to listen with your own player(launches your MP3 player)

LJMB 121730Z AUTO 10002KT 9999 NCD 20/09 Q1028

LJMB Flight Activity (Flightaware)

Listeners: 0 out of 3127 total

Maribor Tower/Approach: 119.200

LJMS CTAF
Murska Sobota, Slovenia

Feed Status: DOWN
Offline since: 2024-02-02 11:59:40 UTC

Murska Sobota Aerodrome Radio: 123.500

LJPZ Tower (Archives)
Secovlje, Slovenia

Feed Status: UP
Listen in your browser - HTML5 player(in browser, HTML5)
Click here to listen with your own player(launches your MP3 player)

LJPZ 121730Z VRB01KT CAVOK 21/10 Q1026

LJPZ Flight Activity (Flightaware)

Listeners: 1 out of 3127 total

Portoroz Tower: 124.875

LKPM Tower
Pribram, Czech Republic

Feed Status: DOWN
Offline since: 2024-04-07 00:20:23 UTC

Pribram Tower: 118.755

LKTB Gnd/Twr/Radar
Brno, Czech Republic

Feed Status: DOWN
Offline since: 2024-04-12 18:11:39 UTC

LKTB 121730Z 34004KT CAVOK 21/06 Q1027 NOSIG

Brno Ground: 125.430
Brno Handling: 131.800
Brno Tower: 119.605
Praha Radar (Approach): 127.350

LPLA Twr/App (Archives)
Lajes, Portugal

Feed Status: UP
Listen in your browser - HTML5 player(in browser, HTML5)
Click here to listen with your own player(launches your MP3 player)

LPLA 121700Z /////KT 9999 SCT016 19/16 Q1024

LPLA Flight Activity (Flightaware)

Listeners: 2 out of 3127 total

Lajes Approach: 135.000
Lajes Tower: 122.100

LPMA Approach (Archives)
Madeira, Portugal

Feed Status: UP
Listen in your browser - HTML5 player(in browser, HTML5)
Click here to listen with your own player(launches your MP3 player)

LPMA 121730Z 04013KT CAVOK 22/17 Q1020

LPMA Flight Activity (Flightaware)

Listeners: 1 out of 3127 total

Madeira Approach: 119.605

LPPR Approach #1 (Archives)
Porto, Portugal

Feed Status: UP
Listen in your browser - HTML5 player(in browser, HTML5)
Click here to listen with your own player(launches your MP3 player)

LPPR 121730Z 22004KT 180V270 CAVOK 21/13 Q1028

LPPR Flight Activity (Flightaware)

Listeners: 1 out of 3127 total

Porto Approach: 121.105

LPPT Approach (Archives)
Lisbon, Portugal

Feed Status: UP
Listen in your browser - HTML5 player(in browser, HTML5)
Click here to listen with your own player(launches your MP3 player)

LPPT 121730Z 33009KT 280V010 CAVOK 26/15 Q1026

LPPT Flight Activity (Flightaware)

Listeners: 5 out of 3127 total

Lisbon Approach: 119.105

LRBV Tower (Archives)
Brasov, Romania

Feed Status: UP
Listen in your browser - HTML5 player(in browser, HTML5)
Click here to listen with your own player(launches your MP3 player)

LRBV 121730Z 23003KT 9999 FEW070 17/07 Q1025

LRBV Flight Activity (Flightaware)

Listeners: 0 out of 3127 total

Brasov Tower: 118.630

LRCL Twr/App #1 (Archives)
Cluj-Napoca, Romania

Feed Status: UP
Listen in your browser - HTML5 player(in browser, HTML5)
Click here to listen with your own player(launches your MP3 player)

LRCL 121730Z 24003KT CAVOK 17/07 Q1026

LRCL Flight Activity (Flightaware)

Listeners: 0 out of 3127 total

Cluj Approach: 126.425
Cluj Tower: 118.705
Napoc ACC: 127.075

LRCL Twr/App/ACC (Archives)
Cluj-Napoca, Romania

Feed Status: UP
Listen in your browser - HTML5 player(in browser, HTML5)
Click here to listen with your own player(launches your MP3 player)

LRCL 121730Z 24003KT CAVOK 17/07 Q1026

LRCL Flight Activity (Flightaware)

Listeners: 0 out of 3127 total

Cluj Approach: 126.430
Cluj Approach: 127.275
Cluj Tower: 118.705
Napoc ACC: 127.075

LROP Ground
Bucharest, Romania

Feed Status: DOWN
Offline since: 2024-04-11 01:36:22 UTC

LROP 121730Z 14005KT CAVOK 19/11 Q1024 NOSIG

Bucharest Ground: 121.855

LROP Radar
Bucharest, Romania

Feed Status: DOWN
Offline since: 2024-04-11 01:36:05 UTC

LROP 121730Z 14005KT CAVOK 19/11 Q1024 NOSIG

Bucharest Radar (Arges Mid sector): 121.175
Bucharest Radar (Arges Top Sector): 123.265
Bucharest Radar (Lomos Top Sector): 132.865

LROP Tower/Approach
Bucharest, Romania

Feed Status: DOWN
Offline since: 2024-04-11 01:36:05 UTC

LROP 121730Z 14005KT CAVOK 19/11 Q1024 NOSIG

Bucharest Approach: 119.415
Bucharest Director: 127.155
Bucharest Tower: 118.805

LROP Twr/App/Radar
Bucharest, Romania

Feed Status: DOWN
Offline since: 2024-04-11 01:36:22 UTC

LROP 121730Z 14005KT CAVOK 19/11 Q1024 NOSIG

Bucharest Approach: 119.415
Bucharest Director: 127.155
Bucharest Radar (Arges Mid sector): 121.175
Bucharest Radar (Arges Top Sector): 123.265
Bucharest Radar (Lomos Top Sector): 132.865
Bucharest Tower: 118.805

LRSB Tower/CTAF (Archives)
Sibiu, Romania

Feed Status: UP
Listen in your browser - HTML5 player(in browser, HTML5)
Click here to listen with your own player(launches your MP3 player)

LRSB 121730Z 29004KT 9999 FEW050CB SCT065 BKN085 17/12 Q1026

LRSB Flight Activity (Flightaware)

Listeners: 0 out of 3127 total

Sibiu Tower: 121.305

LRTR Tower (Archives)
Timisoara, Romania

Feed Status: UP
Listen in your browser - HTML5 player(in browser, HTML5)
Click here to listen with your own player(launches your MP3 player)

LRTR 121730Z 36006KT CAVOK 17/10 Q1026

LRTR Flight Activity (Flightaware)

Listeners: 1 out of 3127 total

ARAD Approach: 127.250
Timisoara Tower: 120.100

LSGG Arr/Dep (Archives)
Geneva, Switzerland

Feed Status: UP
Listen in your browser - HTML5 player(in browser, HTML5)
Click here to listen with your own player(launches your MP3 player)

LSGG 121750Z VRB03KT CAVOK 20/08 Q1029 NOSIG

LSGG Flight Activity (Flightaware)

Listeners: 8 out of 3127 total

Geneva Arrival: 136.255
Geneva Departure: 119.530

LSGG Arrival (Archives)
Geneva, Switzerland

Feed Status: UP
Listen in your browser - HTML5 player(in browser, HTML5)
Click here to listen with your own player(launches your MP3 player)

LSGG 121750Z VRB03KT CAVOK 20/08 Q1029 NOSIG

LSGG Flight Activity (Flightaware)

Listeners: 0 out of 3127 total

Geneva Arrival: 136.255

LSGG ATIS (Archives)
Geneva, Switzerland

Feed Status: UP
Listen in your browser - HTML5 player(in browser, HTML5)
Click here to listen with your own player(launches your MP3 player)

LSGG 121750Z VRB03KT CAVOK 20/08 Q1029 NOSIG

LSGG Flight Activity (Flightaware)

Listeners: 0 out of 3127 total

Geneva ATIS: 135.575

LSGG Delta (VFR) (Archives)
Geneva, Switzerland

Feed Status: UP
Listen in your browser - HTML5 player(in browser, HTML5)
Click here to listen with your own player(launches your MP3 player)

LSGG 121750Z VRB03KT CAVOK 20/08 Q1029 NOSIG

LSGG Flight Activity (Flightaware)

Listeners: 0 out of 3127 total

Geneva Delta (VFR): 119.175

LSGG Departure (Archives)
Geneva, Switzerland

Feed Status: UP
Listen in your browser - HTML5 player(in browser, HTML5)
Click here to listen with your own player(launches your MP3 player)

LSGG 121750Z VRB03KT CAVOK 20/08 Q1029 NOSIG

LSGG Flight Activity (Flightaware)

Listeners: 0 out of 3127 total

Geneva Departure: 119.530

LSGG Glider (Archives)
Geneva, Switzerland

Feed Status: UP
Listen in your browser - HTML5 player(in browser, HTML5)
Click here to listen with your own player(launches your MP3 player)

LSGG 121750Z VRB03KT CAVOK 20/08 Q1029 NOSIG

LSGG Flight Activity (Flightaware)

Listeners: 0 out of 3127 total

Geneva Glider: 124.750

LSGG Info (VFR) (Archives)
Geneva, Switzerland

Feed Status: UP
Listen in your browser - HTML5 player(in browser, HTML5)
Click here to listen with your own player(launches your MP3 player)

LSGG 121750Z VRB03KT CAVOK 20/08 Q1029 NOSIG

LSGG Flight Activity (Flightaware)

Listeners: 2 out of 3127 total

Geneva Information (VFR): 126.350

LSGG Radar Ini N/E/S (Archives)
Geneva, Switzerland

Feed Status: UP
Listen in your browser - HTML5 player(in browser, HTML5)
Click here to listen with your own player(launches your MP3 player)

LSGG 121750Z VRB03KT CAVOK 20/08 Q1029 NOSIG

LSGG Flight Activity (Flightaware)

Listeners: 0 out of 3127 total

Geneva Radar Initial East: 128.905
Geneva Radar Initial North: 134.030
Geneva Radar Initial South: 124.225

LSGG Radar Initial East (Archives)
Geneva, Switzerland

Feed Status: UP
Listen in your browser - HTML5 player(in browser, HTML5)
Click here to listen with your own player(launches your MP3 player)

LSGG 121750Z VRB03KT CAVOK 20/08 Q1029 NOSIG

LSGG Flight Activity (Flightaware)

Listeners: 0 out of 3127 total

Geneva Radar Initial East: 128.905

LSGG Radar Initial North (Archives)
Geneva, Switzerland

Feed Status: UP
Listen in your browser - HTML5 player(in browser, HTML5)
Click here to listen with your own player(launches your MP3 player)

LSGG 121750Z VRB03KT CAVOK 20/08 Q1029 NOSIG

LSGG Flight Activity (Flightaware)

Listeners: 0 out of 3127 total

Geneva Radar Initial North: 134.030

LSGG Radar Initial South (Archives)
Geneva, Switzerland

Feed Status: UP
Listen in your browser - HTML5 player(in browser, HTML5)
Click here to listen with your own player(launches your MP3 player)

LSGG 121750Z VRB03KT CAVOK 20/08 Q1029 NOSIG

LSGG Flight Activity (Flightaware)

Listeners: 0 out of 3127 total

Geneva Radar Initial South: 124.225

LSGG Radar L1 250-280 (Archives)
Geneva, Switzerland

Feed Status: UP
Listen in your browser - HTML5 player(in browser, HTML5)
Click here to listen with your own player(launches your MP3 player)

LSGG 121750Z VRB03KT CAVOK 20/08 Q1029 NOSIG

LSGG Flight Activity (Flightaware)

Listeners: 0 out of 3127 total

Geneva Radar L1 FL250-280: 134.850

LSGG Radar L1/L2/L3/L4/L5 (Archives)
Geneva, Switzerland

Feed Status: UP
Listen in your browser - HTML5 player(in browser, HTML5)
Click here to listen with your own player(launches your MP3 player)

LSGG 121750Z VRB03KT CAVOK 20/08 Q1029 NOSIG

LSGG Flight Activity (Flightaware)

Listeners: 1 out of 3127 total

Geneva Radar L1 FL250-280: 134.850
Geneva Radar L2 FL290-310: 126.050
Geneva Radar L3 FL320-330: 134.315
Geneva Radar L3 FL320-330: 136.015
Geneva Radar L5 FL360-370: 128.155

LSGG Radar L2 290-310 (Archives)
Geneva, Switzerland

Feed Status: UP
Listen in your browser - HTML5 player(in browser, HTML5)
Click here to listen with your own player(launches your MP3 player)

LSGG 121750Z VRB03KT CAVOK 20/08 Q1029 NOSIG

LSGG Flight Activity (Flightaware)

Listeners: 0 out of 3127 total

Geneva Radar L2 FL290-310: 126.050

LSGG Radar L3 320-330 (Archives)
Geneva, Switzerland

Feed Status: UP
Listen in your browser - HTML5 player(in browser, HTML5)
Click here to listen with your own player(launches your MP3 player)

LSGG 121750Z VRB03KT CAVOK 20/08 Q1029 NOSIG

LSGG Flight Activity (Flightaware)

Listeners: 0 out of 3127 total

Geneva Radar L3 FL320-330: 134.315

LSGG Radar L4 340-350 (Archives)
Geneva, Switzerland

Feed Status: UP
Listen in your browser - HTML5 player(in browser, HTML5)
Click here to listen with your own player(launches your MP3 player)

LSGG 121750Z VRB03KT CAVOK 20/08 Q1029 NOSIG

LSGG Flight Activity (Flightaware)

Listeners: 0 out of 3127 total

Geneva Radar L4 FL340-350: 136.015

LSGG Radar L5 360-370 (Archives)
Geneva, Switzerland

Feed Status: UP
Listen in your browser - HTML5 player(in browser, HTML5)
Click here to listen with your own player(launches your MP3 player)

LSGG 121750Z VRB03KT CAVOK 20/08 Q1029 NOSIG

LSGG Flight Activity (Flightaware)

Listeners: 0 out of 3127 total

Geneva Radar L5 FL360-370: 128.155

LSGS Gnd/Twr/App (Archives)
Sion, Switzerland

Feed Status: UP
Listen in your browser - HTML5 player(in browser, HTML5)
Click here to listen with your own player(launches your MP3 player)

LSGS 121750Z 26008KT CAVOK 19/11 Q1029

LSGS Flight Activity (Flightaware)

Listeners: 1 out of 3127 total

Alpine Jet Service Handling: 131.675
Sion Airport Handling: 131.475
Sion Approach (IFR ARR MIL OFF): 126.825
Sion Ground: 121.700
Sion Tower: 118.275

LSMD Tower (Archives)
Dubendorf, Switzerland

Feed Status: UP
Listen in your browser - HTML5 player(in browser, HTML5)
Click here to listen with your own player(launches your MP3 player)

LSZH 121750Z VRB01KT CAVOK 20/05 Q1030 NOSIG

LSZH Flight Activity (Flightaware)

Listeners: 0 out of 3127 total

Dubendorf Tower: 118.975

LSMP Arrival (Archives)
Payerne, Switzerland

Feed Status: UP
Listen in your browser - HTML5 player(in browser, HTML5)
Click here to listen with your own player(launches your MP3 player)

LSMP 121750Z AUTO 33003KT 9999NDV NCD 19/09 Q1030 RMK

LSMP Flight Activity (Flightaware)

Listeners: 0 out of 3127 total

Payerne Arrival: 136.350

LSMP Arrival/Tower (Archives)
Payerne, Switzerland

Feed Status: UP
Listen in your browser - HTML5 player(in browser, HTML5)
Click here to listen with your own player(launches your MP3 player)

LSMP 121750Z AUTO 33003KT 9999NDV NCD 19/09 Q1030 RMK

LSMP Flight Activity (Flightaware)

Listeners: 0 out of 3127 total

Payerne Arrival: 136.350
Payerne Tower: 128.675

LSMP Tower (Archives)
Payerne, Switzerland

Feed Status: UP
Listen in your browser - HTML5 player(in browser, HTML5)
Click here to listen with your own player(launches your MP3 player)

LSMP 121750Z AUTO 33003KT 9999NDV NCD 19/09 Q1030 RMK

LSMP Flight Activity (Flightaware)

Listeners: 0 out of 3127 total

Payerne Tower: 128.675

LSMV Heli Tower
Davos, Switzerland

Feed Status: DOWN
Offline since: 2024-03-27 09:38:06 UTC

LSMV Tower: 120.425

LSPM AFIS (Archives)
Ambri, Switzerland

Feed Status: UP
Listen in your browser - HTML5 player(in browser, HTML5)
Click here to listen with your own player(launches your MP3 player)

LSPM Flight Activity (Flightaware)

Listeners: 0 out of 3127 total

Ambri AFIS: 118.525

LSZA Tower (Archives)
Agno, Switzerland

Feed Status: UP
Listen in your browser - HTML5 player(in browser, HTML5)
Click here to listen with your own player(launches your MP3 player)

LSZA 121750Z 18005KT 130V210 CAVOK 22/11 Q1027

LSZA Flight Activity (Flightaware)

Listeners: 1 out of 3127 total

Lugano Tower: 120.250

LSZB App/Dep (Archives)
Bern, Switzerland

Feed Status: UP
Listen in your browser - HTML5 player(in browser, HTML5)
Click here to listen with your own player(launches your MP3 player)

LSZB 121750Z 33003KT CAVOK 19/08 Q1030

LSZB Flight Activity (Flightaware)

Listeners: 1 out of 3127 total

Bern Arrival/Departure: 127.325

LSZB ATIS (Archives)
Bern, Switzerland

Feed Status: UP
Listen in your browser - HTML5 player(in browser, HTML5)
Click here to listen with your own player(launches your MP3 player)

LSZB 121750Z 33003KT CAVOK 19/08 Q1030

LSZB Flight Activity (Flightaware)

Listeners: 1 out of 3127 total

Bern ATIS: 125.130

LSZB Clearance Delivery (Archives)
Bern, Switzerland

Feed Status: UP
Listen in your browser - HTML5 player(in browser, HTML5)
Click here to listen with your own player(launches your MP3 player)

LSZB 121750Z 33003KT CAVOK 19/08 Q1030

LSZB Flight Activity (Flightaware)

Listeners: 0 out of 3127 total

Bern Clearance Delivery: 121.905

LSZB Del/Twr/App/Dep (Archives)
Bern, Switzerland

Feed Status: UP
Listen in your browser - HTML5 player(in browser, HTML5)
Click here to listen with your own player(launches your MP3 player)

LSZB 121750Z 33003KT CAVOK 19/08 Q1030

LSZB Flight Activity (Flightaware)

Listeners: 1 out of 3127 total

Bern Arrival/Departure: 127.325
Bern Clearance Delivery: 121.905
Bern Tower: 121.025

LSZB Tower (Archives)
Bern, Switzerland

Feed Status: UP
Listen in your browser - HTML5 player(in browser, HTML5)
Click here to listen with your own player(launches your MP3 player)

LSZB 121750Z 33003KT CAVOK 19/08 Q1030

LSZB Flight Activity (Flightaware)

Listeners: 2 out of 3127 total

Bern Tower: 121.025

LSZB Twr/App/Dep (Archives)
Bern, Switzerland

Feed Status: UP
Listen in your browser - HTML5 player(in browser, HTML5)
Click here to listen with your own player(launches your MP3 player)

LSZB 121750Z 33003KT CAVOK 19/08 Q1030

LSZB Flight Activity (Flightaware)

Listeners: 0 out of 3127 total

Bern Arrival/Departure: 127.325
Bern Tower: 121.025

LSZG Tower (Archives)
Grenchen, Switzerland

Feed Status: UP
Listen in your browser - HTML5 player(in browser, HTML5)
Click here to listen with your own player(launches your MP3 player)

LSZG 121750Z AUTO 03003KT CAVOK 19/10 Q1030

LSZG Flight Activity (Flightaware)

Listeners: 1 out of 3127 total

Grenchen Tower: 120.100

LSZH Approach (East) (Archives)
Zurich, Switzerland

Feed Status: UP
Listen in your browser - HTML5 player(in browser, HTML5)
Click here to listen with your own player(launches your MP3 player)

LSZH 121750Z VRB01KT CAVOK 20/05 Q1030 NOSIG

LSZH Flight Activity (Flightaware)

Listeners: 6 out of 3127 total

Zurich Approach (East): 135.230

LSZH Apron (North) (Archives)
Zurich, Switzerland

Feed Status: UP
Listen in your browser - HTML5 player(in browser, HTML5)
Click here to listen with your own player(launches your MP3 player)

LSZH 121750Z VRB01KT CAVOK 20/05 Q1030 NOSIG

LSZH Flight Activity (Flightaware)

Listeners: 2 out of 3127 total

Zurich Apron (North): 121.855

LSZH Apron (South) (Archives)
Zurich, Switzerland

Feed Status: UP
Listen in your browser - HTML5 player(in browser, HTML5)
Click here to listen with your own player(launches your MP3 player)

LSZH 121750Z VRB01KT CAVOK 20/05 Q1030 NOSIG

LSZH Flight Activity (Flightaware)

Listeners: 4 out of 3127 total

Zurich Apron (South): 121.755

LSZH Clearance Delivery (Archives)
Zurich, Switzerland

Feed Status: UP
Listen in your browser - HTML5 player(in browser, HTML5)
Click here to listen with your own player(launches your MP3 player)

LSZH 121750Z VRB01KT CAVOK 20/05 Q1030 NOSIG

LSZH Flight Activity (Flightaware)

Listeners: 3 out of 3127 total

Zurich Clearance Delivery: 121.925

LSZH Ground (Archives)
Zurich, Switzerland

Feed Status: UP
Listen in your browser - HTML5 player(in browser, HTML5)
Click here to listen with your own player(launches your MP3 player)

LSZH 121750Z VRB01KT CAVOK 20/05 Q1030 NOSIG

LSZH Flight Activity (Flightaware)

Listeners: 1 out of 3127 total

Zurich Ground: 121.905

LSZH Radar East 133.905 (Archives)
Zurich, Switzerland

Feed Status: UP
Listen in your browser - HTML5 player(in browser, HTML5)
Click here to listen with your own player(launches your MP3 player)

LSZH 121750Z VRB01KT CAVOK 20/05 Q1030 NOSIG

LSZH Flight Activity (Flightaware)

Listeners: 3 out of 3127 total

Zurich Radar (Below FL240 East): 133.905

LSZH Radar M1 133.050 (Archives)
Zurich, Switzerland

Feed Status: UP
Listen in your browser - HTML5 player(in browser, HTML5)
Click here to listen with your own player(launches your MP3 player)

LSZH 121750Z VRB01KT CAVOK 20/05 Q1030 NOSIG

LSZH Flight Activity (Flightaware)

Listeners: 1 out of 3127 total

Zurich Radar M1: 133.050

LSZH Radar M2 133.405 (Archives)
Zurich, Switzerland

Feed Status: UP
Listen in your browser - HTML5 player(in browser, HTML5)
Click here to listen with your own player(launches your MP3 player)

LSZH 121750Z VRB01KT CAVOK 20/05 Q1030 NOSIG

LSZH Flight Activity (Flightaware)

Listeners: 1 out of 3127 total

Zurich Radar M2: 133.405

LSZH Radar M3 132.815 (Archives)
Zurich, Switzerland

Feed Status: UP
Listen in your browser - HTML5 player(in browser, HTML5)
Click here to listen with your own player(launches your MP3 player)

LSZH 121750Z VRB01KT CAVOK 20/05 Q1030 NOSIG

LSZH Flight Activity (Flightaware)

Listeners: 1 out of 3127 total

Zurich Radar: 132.815

LSZH Radar M4 134.605 (Archives)
Zurich, Switzerland

Feed Status: UP
Listen in your browser - HTML5 player(in browser, HTML5)
Click here to listen with your own player(launches your MP3 player)

LSZH 121750Z VRB01KT CAVOK 20/05 Q1030 NOSIG

LSZH Flight Activity (Flightaware)

Listeners: 1 out of 3127 total

Zurich Radar M4: 134.605

LSZH Radar M5 132.835 (Archives)
Zurich, Switzerland

Feed Status: UP
Listen in your browser - HTML5 player(in browser, HTML5)
Click here to listen with your own player(launches your MP3 player)

LSZH 121750Z VRB01KT CAVOK 20/05 Q1030 NOSIG

LSZH Flight Activity (Flightaware)

Listeners: 0 out of 3127 total

Zurich Radar M5: 132.835

LSZH Radar M6 133.690 (Archives)
Zurich, Switzerland

Feed Status: UP
Listen in your browser - HTML5 player(in browser, HTML5)
Click here to listen with your own player(launches your MP3 player)

LSZH 121750Z VRB01KT CAVOK 20/05 Q1030 NOSIG

LSZH Flight Activity (Flightaware)

Listeners: 2 out of 3127 total

Zurich Radar M6: 133.690

LSZH Radar North 136.155 (Archives)
Zurich, Switzerland

Feed Status: UP
Listen in your browser - HTML5 player(in browser, HTML5)
Click here to listen with your own player(launches your MP3 player)

LSZH 121750Z VRB01KT CAVOK 20/05 Q1030 NOSIG

LSZH Flight Activity (Flightaware)

Listeners: 1 out of 3127 total

Zurich Radar (Below FL240 North): 136.155

LSZH Radar West 135.680 (Archives)
Zurich, Switzerland

Feed Status: UP
Listen in your browser - HTML5 player(in browser, HTML5)
Click here to listen with your own player(launches your MP3 player)

LSZH 121750Z VRB01KT CAVOK 20/05 Q1030 NOSIG

LSZH Flight Activity (Flightaware)

Listeners: 2 out of 3127 total


LSZH Tower (Archives)
Zurich, Switzerland

Feed Status: UP
Listen in your browser - HTML5 player(in browser, HTML5)
Click here to listen with your own player(launches your MP3 player)

LSZH 121750Z VRB01KT CAVOK 20/05 Q1030 NOSIG

LSZH Flight Activity (Flightaware)

Listeners: 15 out of 3127 total

Zurich Tower: 118.100

LSZH Tower (14/32) (Archives)
Zurich, Switzerland

Feed Status: UP
Listen in your browser - HTML5 player(in browser, HTML5)
Click here to listen with your own player(launches your MP3 player)

LSZH 121750Z VRB01KT CAVOK 20/05 Q1030 NOSIG

LSZH Flight Activity (Flightaware)

Listeners: 3 out of 3127 total

Zurich Tower (Rwy 14 App/32 Takeoff): 120.225

LSZH Twr/Gnd (backup) (Archives)
Zurich, Switzerland

Feed Status: UP
Listen in your browser - HTML5 player(in browser, HTML5)
Click here to listen with your own player(launches your MP3 player)

LSZH 121750Z VRB01KT CAVOK 20/05 Q1030 NOSIG

LSZH Flight Activity (Flightaware)

Listeners: 1 out of 3127 total

Zurich Twr/Gnd (backup): 119.700

LSZL Tower (Archives)
Locarno, Switzerland

Feed Status: UP
Listen in your browser - HTML5 player(in browser, HTML5)
Click here to listen with your own player(launches your MP3 player)

LSZL 121750Z AUTO 16002KT 9999NDV NCD 20/13 Q1026 RMK

LSZL Flight Activity (Flightaware)

Listeners: 1 out of 3127 total


LSZN CTAF (Archives)
Zurich, Switzerland

Feed Status: UP
Listen in your browser - HTML5 player(in browser, HTML5)
Click here to listen with your own player(launches your MP3 player)

LSZN Flight Activity (Flightaware)

Listeners: 0 out of 3127 total

Hausen am Albis CTAF: 130.755

LSZR Tower (Archives)
Altenrhein, Switzerland

Feed Status: UP
Listen in your browser - HTML5 player(in browser, HTML5)
Click here to listen with your own player(launches your MP3 player)

LSZR 121750Z VRB01KT CAVOK 16/11 Q1030 RMK N

LSZR Flight Activity (Flightaware)

Listeners: 0 out of 3127 total

Altenrhein Tower: 135.425

LSZW CTAF (Archives)
Thun, Switzerland

Feed Status: UP
Listen in your browser - HTML5 player(in browser, HTML5)
Click here to listen with your own player(launches your MP3 player)

LSZW Flight Activity (Flightaware)

Listeners: 0 out of 3127 total

Thun CTAF/Info: 123.250

LTBA Gnd/Twr/App (Archives)
Istanbul, Turkey

Feed Status: UP
Listen in your browser - HTML5 player(in browser, HTML5)
Click here to listen with your own player(launches your MP3 player)

LTBA 121750Z 36011KT CAVOK 16/12 Q1023

LTBA Flight Activity (Flightaware)

Listeners: 2 out of 3127 total

Istanbul Approach: 126.425
Istanbul Approach: 133.075
Istanbul Tower: 118.100
Istanbul Tower: 118.375

LTFJ Del/Gnd/Twr (Archives)
Istanbul, Turkey

Feed Status: UP
Listen in your browser - HTML5 player(in browser, HTML5)
Click here to listen with your own player(launches your MP3 player)

LTFJ 121750Z 06009KT CAVOK 15/10 Q1023 NOSIG

LTFJ Flight Activity (Flightaware)

Listeners: 1 out of 3127 total

Gokcen Clearance Delivery: 122.625
Gokcen Ground: 121.750
Gokcen Tower: 118.800
Gokcen Tower (West): 120.925
Pegasus Dispatch: 131.750

LTFM App/Dep
Istanbul, Turkey

Feed Status: DOWN
Offline since: 2024-03-17 11:15:06 UTC

LTFM 121750Z 34010KT 9999 SCT006 14/13 Q1024 NOSIG

Yesilkoy Approach: 130.300
Yesilkoy Approach: 118.950
Yesilkoy Radar: 132.475
Yesilkoy Radar: 132.050
Yesilkoy Radar: 131.125
Yesilkoy Radar: 132.325

LTFM Gnd/Twr
Istanbul, Turkey

Feed Status: DOWN
Offline since: 2024-03-17 11:15:06 UTC

LTFM 121750Z 34010KT 9999 SCT006 14/13 Q1024 NOSIG

Istanbul Ground : 122.600
Istanbul Ground: 124.425
Istanbul Tower: 118.075
Istanbul Tower: 122.700
Istanbul Tower: 127.500

LUKK Tower/Approach (Archives)
Chisinau, Moldova

Feed Status: UP
Listen in your browser - HTML5 player(in browser, HTML5)
Click here to listen with your own player(launches your MP3 player)

LUKK 121800Z 35004KT CAVOK 17/02 Q1024 NOSIG

LUKK Flight Activity (Flightaware)

Listeners: 0 out of 3127 total

Chisinau Approach: 133.300
Chisinau Tower: 118.100

LWSK ACC (Lower) (Archives)
Petrovec, North Macedonia, Republic of

Feed Status: UP
Listen in your browser - HTML5 player(in browser, HTML5)
Click here to listen with your own player(launches your MP3 player)

LWSK 121750Z 32006KT CAVOK 21/10 Q1024 NOSIG

LWSK Flight Activity (Flightaware)

Listeners: 0 out of 3127 total

Skopje Control (Lower): 119.375

LWSK ACC (Upper) (Archives)
Petrovec, North Macedonia, Republic of

Feed Status: UP
Listen in your browser - HTML5 player(in browser, HTML5)
Click here to listen with your own player(launches your MP3 player)

LWSK 121750Z 32006KT CAVOK 21/10 Q1024 NOSIG

LWSK Flight Activity (Flightaware)

Listeners: 0 out of 3127 total

Skopje Control (Upper): 120.015

LWSK Approach (Archives)
Petrovec, North Macedonia, Republic of

Feed Status: UP
Listen in your browser - HTML5 player(in browser, HTML5)
Click here to listen with your own player(launches your MP3 player)

LWSK 121750Z 32006KT CAVOK 21/10 Q1024 NOSIG

LWSK Flight Activity (Flightaware)

Listeners: 1 out of 3127 total

Skopje Approach/Departure: 120.300

LWSK ATIS (Archives)
Petrovec, North Macedonia, Republic of

Feed Status: UP
Listen in your browser - HTML5 player(in browser, HTML5)
Click here to listen with your own player(launches your MP3 player)

LWSK 121750Z 32006KT CAVOK 21/10 Q1024 NOSIG

LWSK Flight Activity (Flightaware)

Listeners: 0 out of 3127 total

Skopje ATIS: 130.125

LWSK Tower (Archives)
Petrovec, North Macedonia, Republic of

Feed Status: UP
Listen in your browser - HTML5 player(in browser, HTML5)
Click here to listen with your own player(launches your MP3 player)

LWSK 121750Z 32006KT CAVOK 21/10 Q1024 NOSIG

LWSK Flight Activity (Flightaware)

Listeners: 0 out of 3127 total

Skopje Tower: 118.500

LYNI Twr/App (Archives)
Nis, Serbia

Feed Status: UP
Listen in your browser - HTML5 player(in browser, HTML5)
Click here to listen with your own player(launches your MP3 player)

LYNI 121730Z 32013KT 290V350 CAVOK 21/12 Q1025 NOSIG

LYNI Flight Activity (Flightaware)

Listeners: 0 out of 3127 total

Nis Approach: 119.525
Nis Approach/Tower (Alternate): 136.075
Nis Tower: 118.950

LZKZ Gnd/Twr/App (Archives)
Kosice, Slovakia

Feed Status: UP
Listen in your browser - HTML5 player(in browser, HTML5)
Click here to listen with your own player(launches your MP3 player)

LZKZ 121800Z 33005KT CAVOK 18/09 Q1026 NOSIG

LZKZ Flight Activity (Flightaware)

Listeners: 0 out of 3127 total

Kosice Approach: 129.350
Kosice Approach (backup): 119.850
Kosice Ground: 121.700
Kosice Handling: 131.850
Kosice Tower: 120.400

LZNI CTAF (Archives)
Nitra, Slovakia

Feed Status: UP
Listen in your browser - HTML5 player(in browser, HTML5)
Click here to listen with your own player(launches your MP3 player)

LZNI Flight Activity (Flightaware)

Listeners: 0 out of 3127 total

Nitra Traffic Radio: 123.405

LZPE CTAF/UNICOM (Archives)
Prievidza, Slovakia

Feed Status: UP
Listen in your browser - HTML5 player(in browser, HTML5)
Click here to listen with your own player(launches your MP3 player)

LZPE Flight Activity (Flightaware)

Listeners: 0 out of 3127 total

Prievidza CTAF/UNICOM: 123.055

LZPP Ground/Tower (Archives)
Piestany, Slovakia

Feed Status: UP
Listen in your browser - HTML5 player(in browser, HTML5)
Click here to listen with your own player(launches your MP3 player)

LZPP 121730Z 35005KT CAVOK 17/09 Q1027

LZPP Flight Activity (Flightaware)

Listeners: 0 out of 3127 total

Piestany Ground: 121.700
Piestany Tower: 118.575

LZPT CTAF
Partizanske, Slovakia

Feed Status: DOWN
Offline since: 2023-07-03 13:40:39 UTC

Male Bielice CTAF: 123.500

URSS Gnd/Twr/App (Archives)
Sochi, Russia

Feed Status: UP
Listen in your browser - HTML5 player(in browser, HTML5)
Click here to listen with your own player(launches your MP3 player)

URSS 121730Z 28003MPS 9999 SCT015 OVC039 13/10 Q1021 WS ALL RWY R06/010070 R02/////// NOSIG RMK R02/27002MPS MT OBSC QFE765

URSS Flight Activity (Flightaware)

Listeners: 11 out of 3127 total

Sochi Approach: 118.300
Sochi Approach: 119.700
Sochi District (Small Aircraft): 118.500
Sochi Start: 121.200
Sochi Taxi: 119.000
Sochi Tower: 124.600

USDD Gnd/Twr/App/Control (Archives)
Salekhard, Russia

Feed Status: UP
Listen in your browser - HTML5 player(in browser, HTML5)
Click here to listen with your own player(launches your MP3 player)

USDD 150530Z 05007MPS 9999 -SHRA BKN009CB 09/07 Q1002 R04/290060 NOSIG RMK QFE746/0994

USDD Flight Activity (Flightaware)

Listeners: 0 out of 3127 total

Salekhard Control: 132.300
Salekhard Ground: 118.800
Salekhard Info: 125.200
Salekhard Krug: 120.800
Salekhard Tower: 118.600
Salekhard Transit: 131.700

UUEE Twr/App/Radar
Moscow, Russia

Feed Status: DOWN
Offline since: 2023-08-19 16:35:40 UTC

UUEE 121730Z 28005MPS 9999 SCT040 10/07 Q1012 R24L/290251 R24C/290251 NOSIG

Sheremetyevo Radar (low altitude): 119.300
Sheremetyevo Radar/Arrival: 122.700
Sheremetyevo Radar/Departure: 126.600
Sheremetyevo Tower: 131.500